Wetterdaten: Mittwoch, 26.02.2020
Datum Zeit Temp. Aussen Temp. o. S. Temp +5cm Feuchte Auss Luftdruck Regen Sonnenschein Regendauer Solar Windben Empfang
26.02.2020 00:00 3,6 C 2,8 C 2,2 C 97 % 993,9 hPa 0,0 l/m 0 min 2 min 0 W/m 3,2 km/h (1 Bft) 97,87 %
26.02.2020 00:02 3,6 C 2,8 C 2,2 C 98 % 994,0 hPa 0,0 l/m 0 min 2 min 0 W/m 3,2 km/h (1 Bft) 95,12 %
26.02.2020 00:04 3,7 C 2,8 C 2,8 C 97 % 994,0 hPa 0,0 l/m 0 min 2 min 0 W/m 12,9 km/h (3 Bft) 97,87 %
26.02.2020 00:08 3,7 C 2,8 C 2,2 C 97 % 994,0 hPa 0,0 l/m 0 min 4 min 0 W/m 22,5 km/h (4 Bft) 96,81 %
26.02.2020 00:10 3,7 C 2,8 C 2,2 C 97 % 994,0 hPa 0,0 l/m 0 min 2 min 0 W/m 22,5 km/h (4 Bft) 97,87 %
26.02.2020 00:12 3,7 C 2,8 C 2,2 C 97 % 994,0 hPa 0,0 l/m 0 min 2 min 0 W/m 22,5 km/h (4 Bft) 97,87 %
26.02.2020 00:14 3,7 C 2,8 C 2,8 C 98 % 994,0 hPa 0,0 l/m 0 min 0 min 0 W/m 29,0 km/h (5 Bft) 93,48 %
26.02.2020 00:16 3,7 C 2,8 C 2,2 C 98 % 994,0 hPa 0,0 l/m 0 min 0 min 0 W/m 12,9 km/h (3 Bft) 97,87 %
26.02.2020 00:18 3,8 C 2,8 C 2,8 C 98 % 994,0 hPa 0,0 l/m 0 min 0 min 0 W/m 19,3 km/h (3 Bft) 97,87 %
26.02.2020 00:20 3,8 C 2,8 C 2,8 C 98 % 994,1 hPa 0,0 l/m 0 min 0 min 0 W/m 19,3 km/h (3 Bft) 97,87 %
26.02.2020 00:22 3,8 C 2,8 C 2,8 C 98 % 994,0 hPa 0,0 l/m 0 min 0 min 0 W/m 3,2 km/h (1 Bft) 95,74 %
26.02.2020 00:24 3,8 C 2,8 C 2,8 C 98 % 993,9 hPa 0,0 l/m 0 min 0 min 0 W/m 22,5 km/h (4 Bft) 100,00 %
26.02.2020 00:26 3,8 C 2,8 C 2,2 C 98 % 993,9 hPa 0,0 l/m 0 min 0 min 0 W/m 22,5 km/h (4 Bft) 97,87 %
26.02.2020 00:28 3,8 C 2,8 C 2,2 C 98 % 993,8 hPa 0,0 l/m 0 min 0 min 0 W/m 3,2 km/h (1 Bft) 100,00 %
26.02.2020 00:30 3,8 C 2,8 C 2,2 C 98 % 993,9 hPa 0,0 l/m 0 min 0 min 0 W/m 19,3 km/h (3 Bft) 100,00 %
26.02.2020 00:32 3,8 C 2,8 C 2,2 C 98 % 993,9 hPa 0,0 l/m 0 min 0 min 0 W/m 19,3 km/h (3 Bft) 100,00 %
26.02.2020 00:34 3,7 C 2,8 C 2,2 C 98 % 993,9 hPa 0,0 l/m 0 min 0 min 0 W/m 12,9 km/h (3 Bft) 100,00 %
26.02.2020 00:36 3,7 C 2,8 C 2,2 C 97 % 994,0 hPa 0,0 l/m 0 min 0 min 0 W/m 29,0 km/h (5 Bft) 100,00 %
26.02.2020 00:38 3,7 C 2,8 C 2,2 C 97 % 993,9 hPa 0,0 l/m 0 min 0 min 0 W/m 19,3 km/h (3 Bft) 97,87 %
26.02.2020 00:40 3,7 C 2,8 C 2,8 C 97 % 993,8 hPa 0,0 l/m 0 min 0 min 0 W/m 3,2 km/h (1 Bft) 100,00 %
26.02.2020 00:42 3,7 C 2,8 C 2,2 C 97 % 993,8 hPa 0,0 l/m 0 min 0 min 0 W/m 12,9 km/h (3 Bft) 100,00 %
26.02.2020 00:44 3,7 C 2,8 C 2,2 C 97 % 993,8 hPa 0,0 l/m 0 min 0 min 0 W/m 19,3 km/h (3 Bft) 100,00 %
26.02.2020 00:46 3,7 C 2,8 C 2,2 C 97 % 993,8 hPa 0,0 l/m 0 min 0 min 0 W/m 25,7 km/h (4 Bft) 100,00 %
26.02.2020 00:48 3,7 C 2,8 C 2,2 C 97 % 993,7 hPa 0,0 l/m 0 min 0 min 0 W/m 19,3 km/h (3 Bft) 100,00 %
26.02.2020 00:50 3,7 C 2,8 C 2,2 C 97 % 993,8 hPa 0,0 l/m 0 min 0 min 0 W/m 19,3 km/h (3 Bft) 100,00 %
26.02.2020 00:52 3,7 C 2,8 C 2,2 C 97 % 993,7 hPa 0,0 l/m 0 min 0 min 0 W/m 12,9 km/h (3 Bft) 97,87 %
26.02.2020 00:54 3,7 C 2,8 C 2,2 C 97 % 993,6 hPa 0,0 l/m 0 min 0 min 0 W/m 6,4 km/h (2 Bft) 100,00 %
26.02.2020 00:56 3,7 C 2,8 C 2,2 C 97 % 993,7 hPa 0,0 l/m 0 min 0 min 0 W/m 25,7 km/h (4 Bft) 100,00 %
26.02.2020 00:58 3,7 C 2,8 C 2,2 C 97 % 993,7 hPa 0,0 l/m 0 min 0 min 0 W/m 22,5 km/h (4 Bft) 100,00 %
26.02.2020 01:00 3,7 C 2,8 C 2,2 C 97 % 993,7 hPa 0,0 l/m 0 min 0 min 0 W/m 12,9 km/h (3 Bft) 100,00 %
26.02.2020 01:02 3,7 C 2,8 C 2,2 C 97 % 993,7 hPa 0,0 l/m 0 min 0 min 0 W/m 16,1 km/h (3 Bft) 100,00 %
26.02.2020 01:04 3,7 C 2,8 C 2,2 C 97 % 993,7 hPa 0,0 l/m 0 min 0 min 0 W/m 12,9 km/h (3 Bft) 97,87 %
26.02.2020 01:06 3,7 C 2,8 C 2,2 C 97 % 993,6 hPa 0,0 l/m 0 min 0 min 0 W/m 3,2 km/h (1 Bft) 97,87 %
26.02.2020 01:08 3,7 C 2,8 C 2,2 C 97 % 993,6 hPa 0,0 l/m 0 min 0 min 0 W/m 16,1 km/h (3 Bft) 97,87 %
26.02.2020 01:10 3,7 C 2,8 C 2,2 C 97 % 993,5 hPa 0,0 l/m 0 min 0 min 0 W/m 19,3 km/h (3 Bft) 97,87 %
26.02.2020 01:12 3,7 C 2,8 C 2,2 C 97 % 993,5 hPa 0,0 l/m 0 min 0 min 0 W/m 25,7 km/h (4 Bft) 93,48 %
26.02.2020 01:14 3,7 C 2,8 C 2,2 C 97 % 993,6 hPa 0,0 l/m 0 min 0 min 0 W/m 12,9 km/h (3 Bft) 97,87 %
26.02.2020 01:16 3,7 C 2,8 C 2,2 C 97 % 993,6 hPa 0,0 l/m 0 min 0 min 0 W/m 16,1 km/h (3 Bft) 97,87 %
26.02.2020 01:18 3,7 C 2,8 C 2,2 C 97 % 993,6 hPa 0,0 l/m 0 min 0 min 0 W/m 12,9 km/h (3 Bft) 97,87 %
26.02.2020 01:20 3,7 C 2,8 C 2,2 C 97 % 993,6 hPa 0,0 l/m 0 min 0 min 0 W/m 16,1 km/h (3 Bft) 97,87 %
26.02.2020 01:22 3,6 C 2,8 C 2,2 C 97 % 993,6 hPa 0,0 l/m 0 min 0 min 0 W/m 12,9 km/h (3 Bft) 97,83 %
26.02.2020 01:24 3,6 C 2,8 C 2,2 C 97 % 993,6 hPa 0,0 l/m 0 min 0 min 0 W/m 3,2 km/h (1 Bft) 97,87 %
26.02.2020 01:26 3,6 C 2,8 C 2,2 C 97 % 993,5 hPa 0,0 l/m 0 min 0 min 0 W/m 12,9 km/h (3 Bft) 97,87 %
26.02.2020 01:28 3,6 C 2,8 C 2,2 C 97 % 993,5 hPa 0,0 l/m 0 min 0 min 0 W/m 22,5 km/h (4 Bft) 97,87 %
26.02.2020 01:30 3,6 C 2,8 C 2,2 C 97 % 993,5 hPa 0,0 l/m 0 min 0 min 0 W/m 0,0 km/h (0 Bft) 97,87 %
26.02.2020 01:32 3,6 C 2,8 C 2,2 C 97 % 993,4 hPa 0,0 l/m 0 min 0 min 0 W/m 12,9 km/h (3 Bft) 97,87 %
26.02.2020 01:34 3,6 C 2,8 C 2,2 C 97 % 993,5 hPa 0,0 l/m 0 min 0 min 0 W/m 16,1 km/h (3 Bft) 97,87 %
26.02.2020 01:36 3,6 C 2,2 C 2,2 C 97 % 993,5 hPa 0,0 l/m 0 min 0 min 0 W/m 6,4 km/h (2 Bft) 95,65 %
26.02.2020 01:38 3,6 C 2,2 C 2,2 C 97 % 993,5 hPa 0,0 l/m 0 min 0 min 0 W/m 6,4 km/h (2 Bft) 97,87 %
26.02.2020 01:40 3,6 C 2,2 C 2,2 C 97 % 993,4 hPa 0,0 l/m 0 min 0 min 0 W/m 6,4 km/h (2 Bft) 95,74 %
26.02.2020 01:42 3,6 C 2,2 C 2,2 C 96 % 993,4 hPa 0,0 l/m 0 min 0 min 0 W/m 6,4 km/h (2 Bft) 97,87 %
26.02.2020 01:44 3,6 C 2,2 C 2,2 C 96 % 993,4 hPa 0,0 l/m 0 min 0 min 0 W/m 9,7 km/h (2 Bft) 97,87 %
26.02.2020 01:46 3,6 C 2,2 C 2,2 C 96 % 993,3 hPa 0,0 l/m 0 min 0 min 0 W/m 0,0 km/h (0 Bft) 97,83 %
26.02.2020 01:48 3,5 C 2,2 C 1,7 C 96 % 993,3 hPa 0,0 l/m 0 min 0 min 0 W/m 9,7 km/h (2 Bft) 97,87 %
26.02.2020 01:50 3,5 C 2,2 C 1,7 C 96 % 993,3 hPa 0,0 l/m 0 min 0 min 0 W/m 12,9 km/h (3 Bft) 97,87 %
26.02.2020 01:52 3,5 C 2,2 C 1,7 C 96 % 993,4 hPa 0,0 l/m 0 min 0 min 0 W/m 35,4 km/h (5 Bft) 95,74 %
26.02.2020 01:54 3,4 C 2,2 C 1,7 C 96 % 993,3 hPa 0,0 l/m 0 min 0 min 0 W/m 19,3 km/h (3 Bft) 97,87 %
26.02.2020 01:56 3,4 C 2,2 C 1,7 C 96 % 993,2 hPa 0,0 l/m 0 min 0 min 0 W/m 3,2 km/h (1 Bft) 97,87 %
26.02.2020 01:58 3,4 C 2,2 C 1,7 C 96 % 993,3 hPa 0,0 l/m 0 min 0 min 0 W/m 19,3 km/h (3 Bft) 95,65 %
26.02.2020 02:00 3,4 C 2,2 C 1,7 C 96 % 993,3 hPa 0,0 l/m 0 min 0 min 0 W/m 12,9 km/h (3 Bft) 97,87 %
26.02.2020 02:02 3,4 C 2,2 C 1,7 C 96 % 993,2 hPa 0,0 l/m 0 min 0 min 0 W/m 12,9 km/h (3 Bft) 93,62 %
26.02.2020 02:04 3,4 C 2,2 C 1,7 C 96 % 993,2 hPa 0,0 l/m 0 min 0 min 0 W/m 16,1 km/h (3 Bft) 93,62 %
26.02.2020 02:06 3,4 C 2,2 C 1,7 C 96 % 993,2 hPa 0,0 l/m 0 min 0 min 0 W/m 12,9 km/h (3 Bft) 93,62 %
26.02.2020 02:08 3,3 C 2,2 C 1,7 C 96 % 993,2 hPa 0,0 l/m 0 min 0 min 0 W/m 6,4 km/h (2 Bft) 93,62 %
26.02.2020 02:10 3,4 C 2,2 C 1,7 C 95 % 993,3 hPa 0,0 l/m 0 min 0 min 0 W/m 22,5 km/h (4 Bft) 93,48 %
26.02.2020 02:12 3,4 C 2,8 C 2,2 C 95 % 993,1 hPa 0,2 l/m 0 min 0 min 0 W/m 35,4 km/h (5 Bft) 87,23 %
26.02.2020 02:14 3,4 C 2,8 C 2,2 C 95 % 993,1 hPa 0,0 l/m 0 min 0 min 0 W/m 6,4 km/h (2 Bft) 95,74 %
26.02.2020 02:16 3,4 C 2,8 C 2,2 C 95 % 993,1 hPa 0,0 l/m 0 min 0 min 0 W/m 12,9 km/h (3 Bft) 95,74 %
26.02.2020 02:18 3,4 C 2,8 C 2,2 C 95 % 993,1 hPa 0,0 l/m 0 min 0 min 0 W/m 16,1 km/h (3 Bft) 95,74 %
26.02.2020 02:20 3,5 C 2,8 C 2,2 C 95 % 993,1 hPa 0,0 l/m 0 min 0 min 0 W/m 12,9 km/h (3 Bft) 93,62 %
26.02.2020 02:22 3,5 C 2,8 C 2,2 C 95 % 993,2 hPa 0,0 l/m 0 min 0 min 0 W/m 22,5 km/h (4 Bft) 93,48 %
26.02.2020 02:24 3,6 C 2,8 C 2,2 C 95 % 993,1 hPa 0,0 l/m 0 min 0 min 0 W/m 16,1 km/h (3 Bft) 93,62 %
26.02.2020 02:26 3,6 C 2,8 C 2,2 C 95 % 993,2 hPa 0,0 l/m 0 min 0 min 0 W/m 22,5 km/h (4 Bft) 95,74 %
26.02.2020 02:28 3,6 C 2,8 C 2,2 C 94 % 993,1 hPa 0,0 l/m 0 min 0 min 0 W/m 25,7 km/h (4 Bft) 95,74 %
26.02.2020 02:30 3,6 C 2,8 C 2,2 C 94 % 993,1 hPa 0,0 l/m 0 min 0 min 0 W/m 29,0 km/h (5 Bft) 95,74 %
26.02.2020 02:32 3,7 C 2,8 C 2,2 C 94 % 993,1 hPa 0,0 l/m 0 min 0 min 0 W/m 16,1 km/h (3 Bft) 93,48 %
26.02.2020 02:34 3,7 C 2,8 C 2,2 C 94 % 993,1 hPa 0,0 l/m 0 min 0 min 0 W/m 12,9 km/h (3 Bft) 95,74 %
26.02.2020 02:36 3,7 C 2,8 C 2,2 C 94 % 993,2 hPa 0,0 l/m 0 min 0 min 0 W/m 25,7 km/h (4 Bft) 95,74 %
26.02.2020 02:38 3,7 C 2,8 C 2,2 C 94 % 993,1 hPa 0,0 l/m 0 min 0 min 0 W/m 22,5 km/h (4 Bft) 95,74 %
26.02.2020 02:40 3,7 C 2,8 C 2,2 C 93 % 993,1 hPa 0,0 l/m 0 min 0 min 0 W/m 19,3 km/h (3 Bft) 93,62 %
26.02.2020 02:42 3,8 C 2,8 C 2,2 C 93 % 993,1 hPa 0,0 l/m 0 min 0 min 0 W/m 25,7 km/h (4 Bft) 93,62 %
26.02.2020 02:44 3,8 C 2,8 C 2,2 C 93 % 993,2 hPa 0,0 l/m 0 min 2 min 0 W/m 29,0 km/h (5 Bft) 95,65 %
26.02.2020 02:46 3,8 C 2,8 C 2,2 C 93 % 993,1 hPa 0,0 l/m 0 min 2 min 0 W/m 32,2 km/h (5 Bft) 97,87 %
26.02.2020 02:48 3,8 C 2,8 C 2,2 C 93 % 993,1 hPa 0,0 l/m 0 min 2 min 0 W/m 25,7 km/h (4 Bft) 97,87 %
26.02.2020 02:50 3,8 C 2,8 C 2,2 C 93 % 993,0 hPa 0,0 l/m 0 min 2 min 0 W/m 16,1 km/h (3 Bft) 97,87 %
26.02.2020 02:52 3,8 C 2,2 C 2,2 C 93 % 992,9 hPa 0,0 l/m 0 min 2 min 0 W/m 32,2 km/h (5 Bft) 97,87 %
26.02.2020 02:54 3,8 C 2,2 C 2,2 C 92 % 992,9 hPa 0,0 l/m 0 min 2 min 0 W/m 22,5 km/h (4 Bft) 100,00 %
26.02.2020 02:56 3,8 C 2,2 C 2,2 C 92 % 992,9 hPa 0,0 l/m 0 min 2 min 0 W/m 19,3 km/h (3 Bft) 95,65 %
26.02.2020 02:58 3,8 C 2,2 C 2,2 C 92 % 992,9 hPa 0,0 l/m 0 min 2 min 0 W/m 22,5 km/h (4 Bft) 100,00 %
26.02.2020 03:00 3,8 C 2,2 C 2,2 C 92 % 992,8 hPa 0,0 l/m 0 min 2 min 0 W/m 19,3 km/h (3 Bft) 100,00 %
26.02.2020 03:02 3,8 C 2,8 C 2,2 C 92 % 992,9 hPa 0,0 l/m 0 min 2 min 0 W/m 19,3 km/h (3 Bft) 97,87 %
26.02.2020 03:04 3,8 C 2,8 C 2,2 C 92 % 992,9 hPa 0,0 l/m 0 min 2 min 0 W/m 25,7 km/h (4 Bft) 97,87 %
26.02.2020 03:06 3,8 C 2,8 C 2,2 C 92 % 992,7 hPa 0,0 l/m 0 min 2 min 0 W/m 19,3 km/h (3 Bft) 100,00 %
26.02.2020 03:08 3,8 C 2,8 C 2,2 C 92 % 992,7 hPa 0,0 l/m 0 min 0 min 0 W/m 16,1 km/h (3 Bft) 97,83 %
26.02.2020 03:10 3,8 C 2,8 C 2,2 C 92 % 992,7 hPa 0,0 l/m 0 min 0 min 0 W/m 19,3 km/h (3 Bft) 100,00 %
26.02.2020 03:12 3,8 C 2,8 C 2,2 C 91 % 992,6 hPa 0,0 l/m 0 min 0 min 0 W/m 25,7 km/h (4 Bft) 97,87 %
26.02.2020 03:14 3,8 C 2,8 C 2,2 C 91 % 992,6 hPa 0,0 l/m 0 min 0 min 0 W/m 12,9 km/h (3 Bft) 100,00 %
26.02.2020 03:16 3,8 C 2,8 C 2,2 C 91 % 992,6 hPa 0,0 l/m 0 min 0 min 0 W/m 19,3 km/h (3 Bft) 54,55 %
26.02.2020 03:18 3,8 C 2,8 C 2,2 C 91 % 992,5 hPa 0,0 l/m 0 min 0 min 0 W/m 29,0 km/h (5 Bft) 100,00 %
26.02.2020 03:20 3,8 C 3,3 C 2,2 C 91 % 992,7 hPa 0,0 l/m 0 min 0 min 0 W/m 29,0 km/h (5 Bft) 97,83 %
26.02.2020 03:22 3,9 C 2,8 C 2,2 C 91 % 992,7 hPa 0,0 l/m 0 min 2 min 0 W/m 32,2 km/h (5 Bft) 97,87 %
26.02.2020 03:24 3,9 C 2,8 C 2,2 C 90 % 992,5 hPa 0,0 l/m 0 min 2 min 0 W/m 45,1 km/h (6 Bft) 100,00 %
26.02.2020 03:26 3,9 C 2,8 C 1,7 C 90 % 992,5 hPa 0,0 l/m 0 min 2 min 0 W/m 29,0 km/h (5 Bft) 100,00 %
26.02.2020 03:28 3,9 C 2,8 C 1,7 C 90 % 992,6 hPa 0,0 l/m 0 min 2 min 0 W/m 22,5 km/h (4 Bft) 100,00 %
26.02.2020 03:30 3,9 C 2,8 C 1,7 C 90 % 992,7 hPa 0,0 l/m 0 min 2 min 0 W/m 16,1 km/h (3 Bft) 100,00 %
26.02.2020 03:32 3,9 C 2,8 C 1,7 C 90 % 992,5 hPa 0,0 l/m 0 min 2 min 0 W/m 29,0 km/h (5 Bft) 97,83 %
26.02.2020 03:34 3,8 C 2,2 C 1,7 C 91 % 992,5 hPa 0,0 l/m 0 min 2 min 0 W/m 22,5 km/h (4 Bft) 100,00 %
26.02.2020 03:36 3,8 C 2,2 C 1,7 C 91 % 992,7 hPa 0,0 l/m 0 min 2 min 0 W/m 29,0 km/h (5 Bft) 97,87 %
26.02.2020 03:38 3,8 C 2,2 C 1,7 C 91 % 992,8 hPa 0,0 l/m 0 min 2 min 0 W/m 29,0 km/h (5 Bft) 100,00 %
26.02.2020 03:40 3,7 C 2,2 C 1,7 C 91 % 992,6 hPa 0,0 l/m 0 min 2 min 0 W/m 25,7 km/h (4 Bft) 100,00 %
26.02.2020 03:42 3,7 C 2,2 C 1,7 C 91 % 992,5 hPa 0,2 l/m 0 min 2 min 0 W/m 25,7 km/h (4 Bft) 100,00 %
26.02.2020 03:44 3,7 C 2,2 C 1,7 C 91 % 992,5 hPa 0,0 l/m 0 min 2 min 0 W/m 19,3 km/h (3 Bft) 100,00 %
26.02.2020 03:46 3,7 C 2,2 C 1,7 C 91 % 992,6 hPa 0,0 l/m 0 min 2 min 0 W/m 19,3 km/h (3 Bft) 100,00 %
26.02.2020 03:48 3,6 C 2,2 C 1,7 C 92 % 992,8 hPa 0,0 l/m 0 min 2 min 0 W/m 29,0 km/h (5 Bft) 100,00 %
26.02.2020 03:50 3,6 C 1,7 C 1,7 C 91 % 992,6 hPa 0,0 l/m 0 min 2 min 0 W/m 29,0 km/h (5 Bft) 100,00 %
26.02.2020 03:52 3,5 C 1,7 C 1,7 C 92 % 992,6 hPa 0,0 l/m 0 min 2 min 0 W/m 22,5 km/h (4 Bft) 100,00 %
26.02.2020 03:54 3,4 C 1,7 C 1,7 C 92 % 992,7 hPa 0,2 l/m 0 min 2 min 0 W/m 32,2 km/h (5 Bft) 100,00 %
26.02.2020 03:56 3,4 C 1,7 C 1,7 C 92 % 992,6 hPa 0,2 l/m 0 min 2 min 0 W/m 25,7 km/h (4 Bft) 97,87 %
26.02.2020 03:58 3,3 C 1,7 C 1,1 C 92 % 992,6 hPa 0,0 l/m 0 min 2 min 0 W/m 25,7 km/h (4 Bft) 100,00 %
26.02.2020 04:00 3,3 C 1,7 C 1,1 C 92 % 992,6 hPa 0,0 l/m 0 min 2 min 0 W/m 22,5 km/h (4 Bft) 97,87 %
26.02.2020 04:02 3,2 C 1,7 C 1,1 C 92 % 992,8 hPa 0,2 l/m 0 min 2 min 0 W/m 22,5 km/h (4 Bft) 100,00 %
26.02.2020 04:04 3,1 C 1,1 C 1,1 C 92 % 992,7 hPa 0,2 l/m 0 min 2 min 0 W/m 22,5 km/h (4 Bft) 100,00 %
26.02.2020 04:06 2,9 C 1,1 C 1,1 C 92 % 992,6 hPa 0,0 l/m 0 min 2 min 0 W/m 32,2 km/h (5 Bft) 100,00 %
26.02.2020 04:08 2,8 C 1,1 C 1,1 C 93 % 992,7 hPa 0,2 l/m 0 min 2 min 0 W/m 16,1 km/h (3 Bft) 100,00 %
26.02.2020 04:10 2,8 C 1,1 C 1,1 C 93 % 992,8 hPa 0,0 l/m 0 min 2 min 0 W/m 22,5 km/h (4 Bft) 100,00 %
26.02.2020 04:12 2,7 C 1,1 C 0,6 C 93 % 993,0 hPa 0,2 l/m 0 min 2 min 0 W/m 35,4 km/h (5 Bft) 100,00 %
26.02.2020 04:14 2,6 C 1,1 C 0,6 C 93 % 992,8 hPa 0,0 l/m 0 min 2 min 0 W/m 29,0 km/h (5 Bft) 100,00 %
26.02.2020 04:16 2,5 C 0,6 C 0,6 C 93 % 992,7 hPa 0,0 l/m 0 min 2 min 0 W/m 29,0 km/h (5 Bft) 97,96 %
26.02.2020 04:18 2,4 C 0,6 C 0,6 C 93 % 992,8 hPa 0,2 l/m 0 min 2 min 0 W/m 22,5 km/h (4 Bft) 100,00 %
26.02.2020 04:20 2,3 C 0,6 C 0,6 C 93 % 992,5 hPa 0,0 l/m 0 min 2 min 0 W/m 32,2 km/h (5 Bft) 100,00 %
26.02.2020 04:22 2,2 C 0,6 C 0,6 C 93 % 992,7 hPa 0,2 l/m 0 min 2 min 0 W/m 19,3 km/h (3 Bft) 100,00 %
26.02.2020 04:24 2,2 C 0,6 C 0,6 C 93 % 992,7 hPa 0,0 l/m 0 min 2 min 0 W/m 22,5 km/h (4 Bft) 97,87 %
26.02.2020 04:26 2,1 C 0,6 C 0,6 C 94 % 992,7 hPa 0,0 l/m 0 min 2 min 0 W/m 25,7 km/h (4 Bft) 100,00 %
26.02.2020 04:28 2,1 C 0,6 C 0,0 C 94 % 992,7 hPa 0,2 l/m 0 min 2 min 0 W/m 22,5 km/h (4 Bft) 100,00 %
26.02.2020 04:30 2,0 C 0,6 C 0,0 C 94 % 992,7 hPa 0,2 l/m 0 min 2 min 0 W/m 29,0 km/h (5 Bft) 97,87 %
26.02.2020 04:32 1,9 C 0,0 C 0,0 C 94 % 992,7 hPa 0,0 l/m 0 min 2 min 0 W/m 19,3 km/h (3 Bft) 97,87 %
26.02.2020 04:34 1,8 C 0,0 C 0,0 C 94 % 992,7 hPa 0,0 l/m 0 min 2 min 0 W/m 22,5 km/h (4 Bft) 97,87 %
26.02.2020 04:36 1,8 C 0,0 C 0,0 C 94 % 992,7 hPa 0,2 l/m 0 min 2 min 0 W/m 29,0 km/h (5 Bft) 97,87 %
26.02.2020 04:38 1,7 C 0,0 C 0,0 C 94 % 992,8 hPa 0,0 l/m 0 min 2 min 0 W/m 25,7 km/h (4 Bft) 97,83 %
26.02.2020 04:40 1,7 C 0,0 C 0,0 C 94 % 992,8 hPa 0,2 l/m 0 min 2 min 0 W/m 29,0 km/h (5 Bft) 97,87 %
26.02.2020 04:42 1,6 C 0,0 C 0,0 C 94 % 992,8 hPa 0,0 l/m 0 min 2 min 0 W/m 22,5 km/h (4 Bft) 97,87 %
26.02.2020 04:44 1,6 C 0,0 C 0,0 C 95 % 992,7 hPa 0,0 l/m 0 min 2 min 0 W/m 25,7 km/h (4 Bft) 97,87 %
26.02.2020 04:46 1,6 C 0,0 C 0,0 C 94 % 992,7 hPa 0,2 l/m 0 min 2 min 0 W/m 19,3 km/h (3 Bft) 97,87 %
26.02.2020 04:48 1,5 C 0,0 C 0,0 C 95 % 992,8 hPa 0,0 l/m 0 min 2 min 0 W/m 19,3 km/h (3 Bft) 97,87 %
26.02.2020 04:50 1,4 C 0,0 C -0,6 C 95 % 992,8 hPa 0,2 l/m 0 min 2 min 0 W/m 22,5 km/h (4 Bft) 97,83 %
26.02.2020 04:52 1,4 C 0,0 C -0,6 C 95 % 992,8 hPa 0,0 l/m 0 min 2 min 0 W/m 25,7 km/h (4 Bft) 97,87 %
26.02.2020 04:54 1,3 C 0,0 C -0,6 C 95 % 992,8 hPa 0,0 l/m 0 min 2 min 0 W/m 32,2 km/h (5 Bft) 97,87 %
26.02.2020 04:56 1,3 C 0,0 C -0,6 C 95 % 992,9 hPa 0,0 l/m 0 min 2 min 0 W/m 19,3 km/h (3 Bft) 95,74 %
26.02.2020 04:58 1,2 C 0,0 C -0,6 C 95 % 992,9 hPa 0,2 l/m 0 min 2 min 0 W/m 25,7 km/h (4 Bft) 97,87 %
26.02.2020 05:00 1,2 C 0,0 C -0,6 C 95 % 992,9 hPa 0,0 l/m 0 min 2 min 0 W/m 19,3 km/h (3 Bft) 93,88 %
26.02.2020 05:02 1,2 C 0,0 C -0,6 C 95 % 992,9 hPa 0,0 l/m 0 min 2 min 0 W/m 16,1 km/h (3 Bft) 95,74 %
26.02.2020 05:04 1,1 C -0,6 C -0,6 C 95 % 992,9 hPa 0,2 l/m 0 min 2 min 0 W/m 19,3 km/h (3 Bft) 93,62 %
26.02.2020 05:06 1,1 C 0,0 C -1,1 C 95 % 993,0 hPa 0,0 l/m 0 min 2 min 0 W/m 12,9 km/h (3 Bft) 93,62 %
26.02.2020 05:08 1,1 C 0,0 C -0,6 C 95 % 993,0 hPa 0,0 l/m 0 min 2 min 0 W/m 25,7 km/h (4 Bft) 93,62 %
26.02.2020 05:10 1,1 C 0,0 C -0,6 C 95 % 992,9 hPa 0,0 l/m 0 min 2 min 0 W/m 16,1 km/h (3 Bft) 93,62 %
26.02.2020 05:12 1,1 C -0,6 C -0,6 C 95 % 993,0 hPa 0,2 l/m 0 min 2 min 0 W/m 16,1 km/h (3 Bft) 91,43 %
26.02.2020 05:14 1,1 C 0,0 C -0,6 C 96 % 993,0 hPa 0,0 l/m 0 min 2 min 0 W/m 16,1 km/h (3 Bft) 93,62 %
26.02.2020 05:16 1,0 C -0,6 C -0,6 C 96 % 993,0 hPa 0,0 l/m 0 min 2 min 0 W/m 16,1 km/h (3 Bft) 96,36 %
26.02.2020 05:18 1,0 C -0,6 C -1,1 C 96 % 993,1 hPa 0,0 l/m 0 min 2 min 0 W/m 16,1 km/h (3 Bft) 93,62 %
26.02.2020 05:20 0,9 C -0,6 C -0,6 C 96 % 993,1 hPa 0,0 l/m 0 min 2 min 0 W/m 12,9 km/h (3 Bft) 95,74 %
26.02.2020 05:22 0,9 C -0,6 C -0,6 C 96 % 993,1 hPa 0,2 l/m 0 min 2 min 0 W/m 16,1 km/h (3 Bft) 97,87 %
26.02.2020 05:24 0,9 C -0,6 C -1,1 C 96 % 993,2 hPa 0,0 l/m 0 min 2 min 0 W/m 19,3 km/h (3 Bft) 95,65 %
26.02.2020 05:26 0,9 C -0,6 C -1,1 C 96 % 993,2 hPa 0,0 l/m 0 min 2 min 0 W/m 9,7 km/h (2 Bft) 95,74 %
26.02.2020 05:28 0,8 C -0,6 C -1,1 C 96 % 993,2 hPa 0,0 l/m 0 min 2 min 0 W/m 9,7 km/h (2 Bft) 95,74 %
26.02.2020 05:30 0,8 C -0,6 C -1,1 C 96 % 993,3 hPa 0,0 l/m 0 min 2 min 0 W/m 12,9 km/h (3 Bft) 93,62 %
26.02.2020 05:32 0,8 C -0,6 C -0,6 C 96 % 993,3 hPa 0,0 l/m 0 min 2 min 0 W/m 16,1 km/h (3 Bft) 95,74 %
26.02.2020 05:34 0,8 C -0,6 C -0,6 C 96 % 993,3 hPa 0,0 l/m 0 min 2 min 0 W/m 9,7 km/h (2 Bft) 93,62 %
26.02.2020 05:36 0,7 C -0,6 C -0,6 C 96 % 993,2 hPa 0,0 l/m 0 min 2 min 0 W/m 12,9 km/h (3 Bft) 95,65 %
26.02.2020 05:38 0,7 C -0,6 C -1,1 C 96 % 993,2 hPa 0,0 l/m 0 min 2 min 0 W/m 12,9 km/h (3 Bft) 95,74 %
26.02.2020 05:40 0,7 C -0,6 C -0,6 C 96 % 993,3 hPa 0,2 l/m 0 min 2 min 0 W/m 9,7 km/h (2 Bft) 95,74 %
26.02.2020 05:42 0,7 C -0,6 C -0,6 C 96 % 993,3 hPa 0,0 l/m 0 min 2 min 0 W/m 22,5 km/h (4 Bft) 97,83 %
26.02.2020 05:44 0,7 C -0,6 C -0,6 C 96 % 993,3 hPa 0,0 l/m 0 min 2 min 0 W/m 25,7 km/h (4 Bft) 95,74 %
26.02.2020 05:46 0,7 C -0,6 C -0,6 C 96 % 993,3 hPa 0,0 l/m 0 min 2 min 0 W/m 12,9 km/h (3 Bft) 95,74 %
26.02.2020 05:48 0,7 C 0,0 C -0,6 C 96 % 993,3 hPa 0,0 l/m 0 min 2 min 0 W/m 12,9 km/h (3 Bft) 97,83 %
26.02.2020 05:50 0,7 C -0,6 C -0,6 C 96 % 993,3 hPa 0,2 l/m 0 min 2 min 0 W/m 16,1 km/h (3 Bft) 97,87 %
26.02.2020 05:52 0,7 C -0,6 C -0,6 C 96 % 993,4 hPa 0,0 l/m 0 min 2 min 0 W/m 16,1 km/h (3 Bft) 97,87 %
26.02.2020 05:54 0,7 C 0,0 C -0,6 C 96 % 993,4 hPa 0,0 l/m 0 min 2 min 0 W/m 16,1 km/h (3 Bft) 95,74 %
26.02.2020 05:56 0,7 C 0,0 C -0,6 C 96 % 993,3 hPa 0,0 l/m 0 min 2 min 0 W/m 35,4 km/h (5 Bft) 97,87 %
26.02.2020 05:58 0,7 C -0,6 C -0,6 C 96 % 993,3 hPa 0,0 l/m 0 min 2 min 0 W/m 12,9 km/h (3 Bft) 97,83 %
26.02.2020 06:00 0,7 C -0,6 C -0,6 C 96 % 993,4 hPa 0,0 l/m 0 min 2 min 0 W/m 16,1 km/h (3 Bft) 97,87 %
26.02.2020 06:02 0,7 C 0,0 C -0,6 C 97 % 993,4 hPa 0,2 l/m 0 min 2 min 0 W/m 16,1 km/h (3 Bft) 97,87 %
26.02.2020 06:04 0,7 C 0,0 C -0,6 C 97 % 993,4 hPa 0,0 l/m 0 min 2 min 0 W/m 16,1 km/h (3 Bft) 93,33 %
26.02.2020 06:08 0,7 C 0,0 C -0,6 C 97 % 993,4 hPa 0,0 l/m 0 min 4 min 0 W/m 16,1 km/h (3 Bft) 97,87 %
26.02.2020 06:10 0,7 C 0,0 C -0,6 C 97 % 993,6 hPa 0,0 l/m 0 min 2 min 0 W/m 19,3 km/h (3 Bft) 97,87 %
26.02.2020 06:12 0,7 C 0,0 C -0,6 C 97 % 993,6 hPa 0,2 l/m 0 min 2 min 0 W/m 12,9 km/h (3 Bft) 97,87 %
26.02.2020 06:14 0,8 C 0,0 C -0,6 C 97 % 993,5 hPa 0,0 l/m 0 min 2 min 0 W/m 9,7 km/h (2 Bft) 97,83 %
26.02.2020 06:16 0,7 C 0,0 C -0,6 C 97 % 993,5 hPa 0,0 l/m 0 min 2 min 0 W/m 9,7 km/h (2 Bft) 97,87 %
26.02.2020 06:18 0,7 C 0,0 C -0,6 C 97 % 993,5 hPa 0,0 l/m 0 min 2 min 0 W/m 12,9 km/h (3 Bft) 97,87 %
26.02.2020 06:20 0,7 C 0,0 C -0,6 C 97 % 993,4 hPa 0,0 l/m 0 min 2 min 0 W/m 12,9 km/h (3 Bft) 100,00 %
26.02.2020 06:22 0,7 C 0,0 C -0,6 C 97 % 993,7 hPa 0,0 l/m 0 min 2 min 0 W/m 12,9 km/h (3 Bft) 100,00 %
26.02.2020 06:24 0,7 C 0,0 C -0,6 C 97 % 993,6 hPa 0,0 l/m 0 min 2 min 0 W/m 12,9 km/h (3 Bft) 97,87 %
26.02.2020 06:26 0,8 C 0,0 C -0,6 C 97 % 993,7 hPa 0,2 l/m 0 min 2 min 0 W/m 19,3 km/h (3 Bft) 97,83 %
26.02.2020 06:28 0,8 C 0,0 C -0,6 C 97 % 993,7 hPa 0,0 l/m 0 min 2 min 0 W/m 19,3 km/h (3 Bft) 100,00 %
26.02.2020 06:30 0,8 C 0,0 C -0,6 C 97 % 993,7 hPa 0,0 l/m 0 min 2 min 0 W/m 12,9 km/h (3 Bft) 100,00 %
26.02.2020 06:32 0,8 C 0,0 C -0,6 C 97 % 993,7 hPa 0,0 l/m 0 min 2 min 0 W/m 22,5 km/h (4 Bft) 100,00 %
26.02.2020 06:34 0,8 C 0,0 C -0,6 C 97 % 993,7 hPa 0,0 l/m 0 min 2 min 0 W/m 19,3 km/h (3 Bft) 97,87 %
26.02.2020 06:36 0,8 C 0,0 C -0,6 C 97 % 993,7 hPa 0,0 l/m 0 min 2 min 0 W/m 9,7 km/h (2 Bft) 100,00 %
26.02.2020 06:38 0,8 C 0,0 C -0,6 C 97 % 993,7 hPa 0,2 l/m 0 min 2 min 0 W/m 16,1 km/h (3 Bft) 100,00 %
26.02.2020 06:40 0,8 C 0,0 C -0,6 C 97 % 993,7 hPa 0,0 l/m 0 min 2 min 0 W/m 12,9 km/h (3 Bft) 93,62 %
26.02.2020 06:42 0,8 C 0,0 C -0,6 C 97 % 993,8 hPa 0,0 l/m 0 min 2 min 0 W/m 25,7 km/h (4 Bft) 61,36 %
26.02.2020 06:44 0,8 C 0,0 C -0,6 C 97 % 993,8 hPa 0,0 l/m 0 min 2 min 0 W/m 12,9 km/h (3 Bft) 100,00 %
26.02.2020 06:46 0,8 C 0,0 C -0,6 C 97 % 993,8 hPa 0,0 l/m 0 min 2 min 0 W/m 12,9 km/h (3 Bft) 100,00 %
26.02.2020 06:48 0,8 C 0,0 C -0,6 C 97 % 993,8 hPa 0,0 l/m 0 min 2 min 0 W/m 16,1 km/h (3 Bft) 100,00 %
26.02.2020 06:50 0,7 C 0,0 C -1,1 C 97 % 993,9 hPa 0,0 l/m 0 min 2 min 0 W/m 12,9 km/h (3 Bft) 91,30 %
26.02.2020 06:52 0,7 C -0,6 C -0,6 C 97 % 993,9 hPa 0,0 l/m 0 min 2 min 0 W/m 12,9 km/h (3 Bft) 97,87 %
26.02.2020 06:54 0,7 C -0,6 C -0,6 C 97 % 993,9 hPa 0,0 l/m 0 min 2 min 0 W/m 19,3 km/h (3 Bft) 97,87 %
26.02.2020 06:56 0,7 C 0,0 C -0,6 C 97 % 993,9 hPa 0,0 l/m 0 min 2 min 0 W/m 12,9 km/h (3 Bft) 100,00 %
26.02.2020 06:58 0,6 C -0,6 C -0,6 C 97 % 993,9 hPa 0,0 l/m 0 min 2 min 0 W/m 6,4 km/h (2 Bft) 100,00 %
26.02.2020 07:00 0,6 C -0,6 C -0,6 C 97 % 993,9 hPa 0,0 l/m 0 min 2 min 0 W/m 6,4 km/h (2 Bft) 100,00 %
26.02.2020 07:02 0,6 C 0,0 C -0,6 C 97 % 993,9 hPa 0,2 l/m 0 min 2 min 0 W/m 6,4 km/h (2 Bft) 93,62 %
26.02.2020 07:04 0,6 C -0,6 C -0,6 C 97 % 994,0 hPa 0,0 l/m 0 min 2 min 0 W/m 9,7 km/h (2 Bft) 100,00 %
26.02.2020 07:06 0,6 C 0,0 C -1,1 C 97 % 994,1 hPa 0,0 l/m 0 min 2 min 0 W/m 12,9 km/h (3 Bft) 100,00 %
26.02.2020 07:08 0,6 C 0,0 C -0,6 C 97 % 994,0 hPa 0,0 l/m 0 min 2 min 0 W/m 6,4 km/h (2 Bft) 97,83 %
26.02.2020 07:10 0,6 C -0,6 C -0,6 C 97 % 994,1 hPa 0,0 l/m 0 min 2 min 0 W/m 9,7 km/h (2 Bft) 97,87 %
26.02.2020 07:12 0,6 C 0,0 C -0,6 C 97 % 994,2 hPa 0,0 l/m 0 min 2 min 0 W/m 3,2 km/h (1 Bft) 95,74 %
26.02.2020 07:14 0,6 C 0,0 C -0,6 C 97 % 994,2 hPa 0,0 l/m 0 min 2 min 0 W/m 19,3 km/h (3 Bft) 97,87 %
26.02.2020 07:16 0,6 C -0,6 C -0,6 C 97 % 994,1 hPa 0,0 l/m 0 min 2 min 0 W/m 12,9 km/h (3 Bft) 97,87 %
26.02.2020 07:18 0,6 C 0,0 C -0,6 C 98 % 994,2 hPa 0,0 l/m 0 min 2 min 0 W/m 12,9 km/h (3 Bft) 97,87 %
26.02.2020 07:20 0,6 C 0,0 C -0,6 C 98 % 994,3 hPa 0,2 l/m 0 min 2 min 0 W/m 16,1 km/h (3 Bft) 97,83 %
26.02.2020 07:22 0,6 C 0,0 C -0,6 C 98 % 994,3 hPa 0,0 l/m 0 min 2 min 0 W/m 6,4 km/h (2 Bft) 95,74 %
26.02.2020 07:24 0,6 C 0,0 C -0,6 C 98 % 994,4 hPa 0,0 l/m 0 min 2 min 0 W/m 9,7 km/h (2 Bft) 97,87 %
26.02.2020 07:26 0,6 C 0,0 C -0,6 C 98 % 994,3 hPa 0,0 l/m 0 min 2 min 0 W/m 19,3 km/h (3 Bft) 97,87 %
26.02.2020 07:28 0,6 C 0,0 C -0,6 C 98 % 994,5 hPa 0,0 l/m 0 min 2 min 0 W/m 16,1 km/h (3 Bft) 97,87 %
26.02.2020 07:30 0,6 C 0,0 C -0,6 C 98 % 994,4 hPa 0,0 l/m 0 min 2 min 0 W/m 3,2 km/h (1 Bft) 95,74 %
26.02.2020 07:32 0,6 C 0,0 C -1,1 C 98 % 994,4 hPa 0,0 l/m 0 min 2 min 0 W/m 6,4 km/h (2 Bft) 93,48 %
26.02.2020 07:34 0,6 C 0,0 C -1,1 C 98 % 994,5 hPa 0,0 l/m 0 min 2 min 0 W/m 12,9 km/h (3 Bft) 93,62 %
26.02.2020 07:36 0,6 C 0,0 C -0,6 C 98 % 994,5 hPa 0,0 l/m 0 min 2 min 0 W/m 16,1 km/h (3 Bft) 95,74 %
26.02.2020 07:38 0,6 C 0,0 C -0,6 C 98 % 994,5 hPa 0,0 l/m 0 min 2 min 0 W/m 6,4 km/h (2 Bft) 97,87 %
26.02.2020 07:40 0,6 C -0,6 C -0,6 C 98 % 994,5 hPa 0,2 l/m 0 min 2 min 0 W/m 3,2 km/h (1 Bft) 97,87 %
26.02.2020 07:42 0,6 C -0,6 C -0,6 C 98 % 994,6 hPa 0,0 l/m 0 min 2 min 0 W/m 6,4 km/h (2 Bft) 95,74 %
26.02.2020 07:44 0,6 C -0,6 C -0,6 C 98 % 994,6 hPa 0,0 l/m 0 min 2 min 0 W/m 9,7 km/h (2 Bft) 97,83 %
26.02.2020 07:46 0,6 C -0,6 C -0,6 C 98 % 994,6 hPa 0,0 l/m 0 min 2 min 0 W/m 19,3 km/h (3 Bft) 97,87 %
26.02.2020 07:48 0,6 C -0,6 C -0,6 C 98 % 994,6 hPa 0,0 l/m 0 min 2 min 0 W/m 12,9 km/h (3 Bft) 95,74 %
26.02.2020 07:50 0,6 C -0,6 C -0,6 C 98 % 994,8 hPa 0,0 l/m 0 min 2 min 3 W/m 6,4 km/h (2 Bft) 95,74 %
26.02.2020 07:52 0,6 C -0,6 C -0,6 C 98 % 994,9 hPa 0,0 l/m 0 min 2 min 6 W/m 12,9 km/h (3 Bft) 97,87 %
26.02.2020 07:54 0,6 C -0,6 C -0,6 C 98 % 994,9 hPa 0,0 l/m 0 min 2 min 7 W/m 3,2 km/h (1 Bft) 95,74 %
26.02.2020 07:56 0,6 C 0,0 C -1,1 C 98 % 994,9 hPa 0,0 l/m 0 min 2 min 7 W/m 6,4 km/h (2 Bft) 95,65 %
26.02.2020 07:58 0,6 C -0,6 C -0,6 C 98 % 995,0 hPa 0,2 l/m 0 min 2 min 8 W/m 9,7 km/h (2 Bft) 97,87 %
26.02.2020 08:00 0,6 C 0,0 C -0,6 C 98 % 995,0 hPa 0,0 l/m 0 min 2 min 9 W/m 3,2 km/h (1 Bft) 97,87 %
26.02.2020 08:02 0,6 C -0,6 C -1,1 C 98 % 995,0 hPa 0,0 l/m 0 min 2 min 10 W/m 3,2 km/h (1 Bft) 97,87 %
26.02.2020 08:04 0,6 C -0,6 C -0,6 C 98 % 995,1 hPa 0,0 l/m 0 min 2 min 12 W/m 0,0 km/h (0 Bft) 97,87 %
26.02.2020 08:06 0,6 C 0,0 C -0,6 C 98 % 995,1 hPa 0,0 l/m 0 min 2 min 12 W/m 3,2 km/h (1 Bft) 97,83 %
26.02.2020 08:08 0,6 C -0,6 C -0,6 C 98 % 995,2 hPa 0,0 l/m 0 min 2 min 14 W/m 6,4 km/h (2 Bft) 97,87 %
26.02.2020 08:10 0,6 C 0,0 C -0,6 C 98 % 995,2 hPa 0,0 l/m 0 min 2 min 17 W/m 12,9 km/h (3 Bft) 95,74 %
26.02.2020 08:12 0,6 C 0,0 C -0,6 C 98 % 995,3 hPa 0,0 l/m 0 min 2 min 22 W/m 9,7 km/h (2 Bft) 91,49 %
26.02.2020 08:14 0,6 C 0,0 C -0,6 C 98 % 995,3 hPa 0,2 l/m 0 min 2 min 27 W/m 0,0 km/h (0 Bft) 95,74 %
26.02.2020 08:16 0,6 C 0,0 C -0,6 C 98 % 995,4 hPa 0,0 l/m 0 min 2 min 26 W/m 9,7 km/h (2 Bft) 97,87 %
26.02.2020 08:18 0,6 C 0,0 C -0,6 C 98 % 995,4 hPa 0,0 l/m 0 min 2 min 29 W/m 3,2 km/h (1 Bft) 97,83 %
26.02.2020 08:20 0,6 C 0,0 C -0,6 C 98 % 995,5 hPa 0,0 l/m 0 min 2 min 30 W/m 6,4 km/h (2 Bft) 97,87 %
26.02.2020 08:22 0,6 C 0,0 C -0,6 C 98 % 995,5 hPa 0,0 l/m 0 min 2 min 26 W/m 3,2 km/h (1 Bft) 97,87 %
26.02.2020 08:24 0,7 C 0,0 C 0,0 C 98 % 995,5 hPa 0,2 l/m 0 min 2 min 24 W/m 12,9 km/h (3 Bft) 97,87 %
26.02.2020 08:26 0,7 C 0,0 C 0,0 C 98 % 995,6 hPa 0,0 l/m 0 min 2 min 29 W/m 6,4 km/h (2 Bft) 97,87 %
26.02.2020 08:28 0,7 C 0,0 C 0,0 C 98 % 995,6 hPa 0,0 l/m 0 min 2 min 29 W/m 3,2 km/h (1 Bft) 95,74 %
26.02.2020 08:30 0,7 C 0,0 C 0,0 C 98 % 995,6 hPa 0,0 l/m 0 min 2 min 24 W/m 9,7 km/h (2 Bft) 97,83 %
26.02.2020 08:32 0,8 C 0,0 C -0,6 C 98 % 995,7 hPa 0,0 l/m 0 min 2 min 24 W/m 12,9 km/h (3 Bft) 100,00 %
26.02.2020 08:34 0,7 C 0,0 C -0,6 C 98 % 995,7 hPa 0,0 l/m 0 min 2 min 25 W/m 9,7 km/h (2 Bft) 100,00 %
26.02.2020 08:36 0,8 C 0,0 C -0,6 C 98 % 995,7 hPa 0,2 l/m 0 min 2 min 25 W/m 9,7 km/h (2 Bft) 95,74 %
26.02.2020 08:38 0,8 C 0,0 C 0,0 C 98 % 995,7 hPa 0,0 l/m 0 min 2 min 25 W/m 6,4 km/h (2 Bft) 100,00 %
26.02.2020 08:40 0,8 C 0,0 C -0,6 C 98 % 995,8 hPa 0,0 l/m 0 min 2 min 21 W/m 3,2 km/h (1 Bft) 100,00 %
26.02.2020 08:42 0,8 C 0,0 C 0,0 C 98 % 995,8 hPa 0,0 l/m 0 min 2 min 19 W/m 19,3 km/h (3 Bft) 100,00 %
26.02.2020 08:44 0,8 C 0,0 C 0,0 C 98 % 995,9 hPa 0,0 l/m 0 min 2 min 20 W/m 0,0 km/h (0 Bft) 100,00 %
26.02.2020 08:46 0,8 C 0,0 C 0,0 C 98 % 995,9 hPa 0,0 l/m 0 min 2 min 18 W/m 6,4 km/h (2 Bft) 97,87 %
26.02.2020 08:48 0,8 C 0,0 C 0,0 C 98 % 996,0 hPa 0,0 l/m 0 min 2 min 17 W/m 0,0 km/h (0 Bft) 100,00 %
26.02.2020 08:50 0,8 C 0,0 C 0,0 C 98 % 996,0 hPa 0,2 l/m 0 min 2 min 17 W/m 3,2 km/h (1 Bft) 97,87 %
26.02.2020 08:52 0,8 C 0,0 C -0,6 C 98 % 996,1 hPa 0,0 l/m 0 min 2 min 17 W/m 6,4 km/h (2 Bft) 97,83 %
26.02.2020 08:54 0,8 C 0,0 C -0,6 C 98 % 996,1 hPa 0,0 l/m 0 min 2 min 18 W/m 6,4 km/h (2 Bft) 100,00 %
26.02.2020 08:56 0,8 C 0,0 C 0,0 C 98 % 996,1 hPa 0,0 l/m 0 min 2 min 20 W/m 3,2 km/h (1 Bft) 100,00 %
26.02.2020 08:58 0,8 C 0,0 C 0,0 C 98 % 996,1 hPa 0,0 l/m 0 min 2 min 19 W/m 3,2 km/h (1 Bft) 97,87 %
26.02.2020 09:00 0,8 C 0,0 C 0,0 C 98 % 996,2 hPa 0,0 l/m 0 min 2 min 19 W/m 3,2 km/h (1 Bft) 93,62 %
26.02.2020 09:02 0,8 C 0,0 C 0,0 C 98 % 996,2 hPa 0,0 l/m 0 min 2 min 18 W/m 0,0 km/h (0 Bft) 97,87 %
26.02.2020 09:04 0,8 C 0,0 C -0,6 C 98 % 996,3 hPa 0,0 l/m 0 min 2 min 17 W/m 9,7 km/h (2 Bft) 95,65 %
26.02.2020 09:06 0,9 C 0,0 C 0,0 C 98 % 996,3 hPa 0,2 l/m 0 min 2 min 15 W/m 16,1 km/h (3 Bft) 97,87 %
26.02.2020 09:08 0,9 C 0,0 C 0,0 C 98 % 996,5 hPa 0,0 l/m 0 min 2 min 16 W/m 6,4 km/h (2 Bft) 97,87 %
26.02.2020 09:10 0,9 C 0,0 C 0,0 C 98 % 996,5 hPa 0,0 l/m 0 min 2 min 18 W/m 3,2 km/h (1 Bft) 97,87 %
26.02.2020 09:12 0,9 C 0,0 C -0,6 C 98 % 996,6 hPa 0,0 l/m 0 min 2 min 18 W/m 3,2 km/h (1 Bft) 97,87 %
26.02.2020 09:14 0,9 C 0,0 C 0,0 C 98 % 996,6 hPa 0,0 l/m 0 min 2 min 18 W/m 0,0 km/h (0 Bft) 97,87 %
26.02.2020 09:16 0,9 C 0,0 C 0,0 C 98 % 996,7 hPa 0,2 l/m 0 min 2 min 18 W/m 9,7 km/h (2 Bft) 97,83 %
26.02.2020 09:18 0,9 C 0,0 C 0,0 C 98 % 996,7 hPa 0,0 l/m 0 min 2 min 19 W/m 3,2 km/h (1 Bft) 97,87 %
26.02.2020 09:20 0,9 C 0,6 C 0,0 C 98 % 996,7 hPa 0,0 l/m 0 min 2 min 19 W/m 6,4 km/h (2 Bft) 97,87 %
26.02.2020 09:22 0,9 C 0,6 C 0,0 C 98 % 996,7 hPa 0,0 l/m 0 min 2 min 18 W/m 3,2 km/h (1 Bft) 97,87 %
26.02.2020 09:24 0,9 C 0,6 C 0,0 C 98 % 996,8 hPa 0,0 l/m 0 min 2 min 18 W/m 9,7 km/h (2 Bft) 95,74 %
26.02.2020 09:26 1,0 C 0,6 C 0,0 C 98 % 996,9 hPa 0,0 l/m 0 min 2 min 22 W/m 3,2 km/h (1 Bft) 95,74 %
26.02.2020 09:28 1,0 C 0,6 C 0,0 C 98 % 996,9 hPa 0,2 l/m 0 min 2 min 22 W/m 3,2 km/h (1 Bft) 93,48 %
26.02.2020 09:30 1,1 C 0,6 C 0,6 C 98 % 997,0 hPa 0,0 l/m 0 min 2 min 25 W/m 6,4 km/h (2 Bft) 95,74 %
26.02.2020 09:32 1,1 C 0,6 C 0,6 C 98 % 996,9 hPa 0,0 l/m 0 min 2 min 25 W/m 22,5 km/h (4 Bft) 97,87 %
26.02.2020 09:34 1,1 C 0,6 C 0,6 C 98 % 997,0 hPa 0,0 l/m 0 min 2 min 27 W/m 9,7 km/h (2 Bft) 97,87 %
26.02.2020 09:36 1,2 C 0,6 C 0,6 C 98 % 997,0 hPa 0,0 l/m 0 min 2 min 30 W/m 3,2 km/h (1 Bft) 95,74 %
26.02.2020 09:38 1,2 C 0,6 C 0,6 C 98 % 997,1 hPa 0,0 l/m 0 min 2 min 28 W/m 0,0 km/h (0 Bft) 93,62 %
26.02.2020 09:40 1,2 C 0,6 C 0,6 C 98 % 997,1 hPa 0,2 l/m 0 min 2 min 27 W/m 16,1 km/h (3 Bft) 97,83 %
26.02.2020 09:42 1,3 C 1,1 C 0,6 C 98 % 997,2 hPa 0,0 l/m 0 min 2 min 28 W/m 3,2 km/h (1 Bft) 97,87 %
26.02.2020 09:44 1,3 C 1,1 C 0,6 C 98 % 997,2 hPa 0,0 l/m 0 min 2 min 36 W/m 3,2 km/h (1 Bft) 95,74 %
26.02.2020 09:46 1,3 C 1,1 C 0,6 C 98 % 997,3 hPa 0,0 l/m 0 min 2 min 43 W/m 3,2 km/h (1 Bft) 97,87 %
26.02.2020 09:48 1,4 C 1,1 C 0,6 C 98 % 997,3 hPa 0,0 l/m 0 min 2 min 42 W/m 6,4 km/h (2 Bft) 93,62 %
26.02.2020 09:50 1,4 C 1,1 C 0,6 C 98 % 997,3 hPa 0,0 l/m 0 min 2 min 37 W/m 16,1 km/h (3 Bft) 97,87 %
26.02.2020 09:52 1,4 C 1,1 C 0,6 C 98 % 997,3 hPa 0,0 l/m 0 min 2 min 42 W/m 16,1 km/h (3 Bft) 95,65 %
26.02.2020 09:54 1,4 C 1,1 C 0,6 C 99 % 997,3 hPa 0,2 l/m 0 min 2 min 48 W/m 3,2 km/h (1 Bft) 93,62 %
26.02.2020 09:56 1,5 C 1,1 C 0,6 C 99 % 997,5 hPa 0,0 l/m 0 min 2 min 48 W/m 9,7 km/h (2 Bft) 93,62 %
26.02.2020 09:58 1,5 C 1,1 C 0,6 C 99 % 997,4 hPa 0,0 l/m 0 min 2 min 43 W/m 12,9 km/h (3 Bft) 93,62 %
26.02.2020 10:00 1,5 C 1,1 C 0,6 C 99 % 997,5 hPa 0,0 l/m 0 min 2 min 38 W/m 0,0 km/h (0 Bft) 95,74 %
26.02.2020 10:02 1,6 C 1,1 C 0,6 C 99 % 997,5 hPa 0,0 l/m 0 min 2 min 40 W/m 0,0 km/h (0 Bft) 97,83 %
26.02.2020 10:04 1,6 C 1,1 C 0,6 C 99 % 997,6 hPa 0,2 l/m 0 min 2 min 41 W/m 0,0 km/h (0 Bft) 97,92 %
26.02.2020 10:06 1,6 C 1,1 C 0,6 C 99 % 997,6 hPa 0,0 l/m 0 min 2 min 30 W/m 6,4 km/h (2 Bft) 97,87 %
26.02.2020 10:08 1,6 C 1,1 C 0,6 C 99 % 997,7 hPa 0,0 l/m 0 min 2 min 18 W/m 6,4 km/h (2 Bft) 93,62 %
26.02.2020 10:10 1,6 C 1,1 C 0,6 C 99 % 997,7 hPa 0,0 l/m 0 min 2 min 21 W/m 9,7 km/h (2 Bft) 97,87 %
26.02.2020 10:12 1,6 C 0,6 C 0,6 C 99 % 997,8 hPa 0,0 l/m 0 min 2 min 22 W/m 12,9 km/h (3 Bft) 97,87 %
26.02.2020 10:14 1,6 C 0,6 C 0,6 C 99 % 997,9 hPa 0,0 l/m 0 min 2 min 28 W/m 6,4 km/h (2 Bft) 97,83 %
26.02.2020 10:16 1,6 C 0,6 C 0,6 C 99 % 997,9 hPa 0,0 l/m 0 min 2 min 22 W/m 0,0 km/h (0 Bft) 97,96 %
26.02.2020 10:18 1,6 C 0,6 C 0,0 C 99 % 998,0 hPa 0,2 l/m 0 min 2 min 19 W/m 22,5 km/h (4 Bft) 95,74 %
26.02.2020 10:20 1,5 C 0,6 C 0,0 C 99 % 998,0 hPa 0,0 l/m 0 min 2 min 17 W/m 6,4 km/h (2 Bft) 97,87 %
26.02.2020 10:22 1,4 C 0,0 C 0,0 C 99 % 998,1 hPa 0,0 l/m 0 min 2 min 20 W/m 3,2 km/h (1 Bft) 97,87 %
26.02.2020 10:24 1,4 C 0,6 C 0,0 C 99 % 998,1 hPa 0,2 l/m 0 min 2 min 24 W/m 3,2 km/h (1 Bft) 93,62 %
26.02.2020 10:26 1,4 C 0,6 C 0,0 C 99 % 998,2 hPa 0,0 l/m 0 min 2 min 21 W/m 0,0 km/h (0 Bft) 95,74 %
26.02.2020 10:28 1,3 C 0,6 C 0,0 C 99 % 998,2 hPa 0,0 l/m 0 min 2 min 16 W/m 0,0 km/h (0 Bft) 93,48 %
26.02.2020 10:30 1,3 C 0,6 C 0,0 C 99 % 998,2 hPa 0,0 l/m 0 min 2 min 18 W/m 0,0 km/h (0 Bft) 95,74 %
26.02.2020 10:32 1,3 C 0,6 C 0,6 C 99 % 998,3 hPa 0,0 l/m 0 min 2 min 22 W/m 3,2 km/h (1 Bft) 95,74 %
26.02.2020 10:34 1,3 C 0,6 C 0,6 C 99 % 998,2 hPa 0,0 l/m 0 min 0 min 27 W/m 0,0 km/h (0 Bft) 95,74 %
26.02.2020 10:36 1,3 C 1,1 C 0,6 C 99 % 998,3 hPa 0,0 l/m 0 min 2 min 40 W/m 3,2 km/h (1 Bft) 97,87 %
26.02.2020 10:38 1,3 C 1,1 C 0,6 C 99 % 998,3 hPa 0,0 l/m 0 min 2 min 58 W/m 3,2 km/h (1 Bft) 97,87 %
26.02.2020 10:40 1,4 C 1,1 C 0,6 C 99 % 998,3 hPa 0,2 l/m 0 min 2 min 63 W/m 9,7 km/h (2 Bft) 97,83 %
26.02.2020 10:42 1,4 C 1,1 C 1,1 C 99 % 998,4 hPa 0,0 l/m 0 min 2 min 63 W/m 6,4 km/h (2 Bft) 95,74 %
26.02.2020 10:44 1,5 C 1,7 C 1,1 C 99 % 998,3 hPa 0,0 l/m 0 min 2 min 80 W/m 19,3 km/h (3 Bft) 95,74 %
26.02.2020 10:46 1,6 C 1,7 C 1,1 C 99 % 998,4 hPa 0,0 l/m 0 min 2 min 117 W/m 3,2 km/h (1 Bft) 89,36 %
26.02.2020 10:48 1,7 C 1,7 C 1,1 C 99 % 998,4 hPa 0,0 l/m 0 min 2 min 122 W/m 3,2 km/h (1 Bft) 57,45 %
26.02.2020 10:50 1,8 C 1,7 C 1,1 C 99 % 998,4 hPa 0,0 l/m 0 min 2 min 124 W/m 3,2 km/h (1 Bft) 97,87 %
26.02.2020 10:52 1,8 C 2,2 C 1,7 C 99 % 998,5 hPa 0,0 l/m 0 min 0 min 115 W/m 0,0 km/h (0 Bft) 97,83 %
26.02.2020 10:54 1,9 C 2,2 C 1,7 C 99 % 998,5 hPa 0,0 l/m 0 min 2 min 106 W/m 3,2 km/h (1 Bft) 97,87 %
26.02.2020 10:56 2,0 C 2,2 C 1,7 C 99 % 998,5 hPa 0,0 l/m 0 min 2 min 99 W/m 3,2 km/h (1 Bft) 97,87 %
26.02.2020 10:58 2,1 C 2,2 C 1,7 C 99 % 998,6 hPa 0,2 l/m 0 min 2 min 113 W/m 3,2 km/h (1 Bft) 97,87 %
26.02.2020 11:00 2,1 C 2,2 C 1,7 C 99 % 998,6 hPa 0,0 l/m 0 min 2 min 113 W/m 3,2 km/h (1 Bft) 97,87 %
26.02.2020 11:02 2,2 C 2,2 C 1,7 C 99 % 998,6 hPa 0,0 l/m 0 min 2 min 125 W/m 3,2 km/h (1 Bft) 97,83 %
26.02.2020 11:04 2,2 C 2,2 C 1,7 C 99 % 998,6 hPa 0,0 l/m 0 min 0 min 122 W/m 3,2 km/h (1 Bft) 95,74 %
26.02.2020 11:06 2,3 C 2,2 C 1,7 C 99 % 998,7 hPa 0,0 l/m 0 min 0 min 105 W/m 0,0 km/h (0 Bft) 97,87 %
26.02.2020 11:08 2,3 C 2,2 C 1,7 C 99 % 998,7 hPa 0,0 l/m 0 min 2 min 106 W/m 6,4 km/h (2 Bft) 97,87 %
26.02.2020 11:10 2,3 C 2,2 C 1,7 C 99 % 998,8 hPa 0,0 l/m 0 min 2 min 135 W/m 6,4 km/h (2 Bft) 100,00 %
26.02.2020 11:12 2,4 C 2,8 C 1,7 C 99 % 998,7 hPa 0,0 l/m 0 min 2 min 142 W/m 12,9 km/h (3 Bft) 100,00 %
26.02.2020 11:14 2,4 C 2,8 C 2,2 C 99 % 998,8 hPa 0,0 l/m 0 min 0 min 157 W/m 3,2 km/h (1 Bft) 100,00 %
26.02.2020 11:16 2,5 C 2,8 C 2,2 C 99 % 998,8 hPa 0,0 l/m 0 min 0 min 158 W/m 3,2 km/h (1 Bft) 100,00 %
26.02.2020 11:18 2,6 C 2,8 C 2,2 C 99 % 998,9 hPa 0,0 l/m 0 min 0 min 135 W/m 12,9 km/h (3 Bft) 97,87 %
26.02.2020 11:20 2,6 C 2,8 C 2,2 C 99 % 998,9 hPa 0,0 l/m 0 min 0 min 146 W/m 3,2 km/h (1 Bft) 100,00 %
26.02.2020 11:22 2,6 C 2,8 C 2,2 C 99 % 998,9 hPa 0,0 l/m 0 min 0 min 119 W/m 0,0 km/h (0 Bft) 100,00 %
26.02.2020 11:24 2,7 C 2,8 C 2,2 C 99 % 999,0 hPa 0,0 l/m 0 min 2 min 119 W/m 12,9 km/h (3 Bft) 100,00 %
26.02.2020 11:26 2,7 C 2,2 C 2,2 C 99 % 999,1 hPa 0,0 l/m 0 min 2 min 113 W/m 16,1 km/h (3 Bft) 97,83 %
26.02.2020 11:28 2,7 C 2,2 C 1,7 C 99 % 999,1 hPa 0,0 l/m 0 min 2 min 125 W/m 16,1 km/h (3 Bft) 100,00 %
26.02.2020 11:30 2,6 C 2,2 C 1,7 C 99 % 999,2 hPa 0,0 l/m 0 min 2 min 123 W/m 16,1 km/h (3 Bft) 100,00 %
26.02.2020 11:32 2,6 C 2,2 C 1,7 C 99 % 999,2 hPa 0,0 l/m 0 min 2 min 130 W/m 16,1 km/h (3 Bft) 100,00 %
26.02.2020 11:34 2,6 C 2,2 C 1,7 C 99 % 999,2 hPa 0,0 l/m 0 min 2 min 125 W/m 6,4 km/h (2 Bft) 100,00 %
26.02.2020 11:36 2,6 C 2,2 C 1,7 C 99 % 999,3 hPa 0,0 l/m 0 min 2 min 103 W/m 12,9 km/h (3 Bft) 100,00 %
26.02.2020 11:38 2,6 C 2,2 C 1,7 C 99 % 999,3 hPa 0,0 l/m 0 min 2 min 83 W/m 12,9 km/h (3 Bft) 100,00 %
26.02.2020 11:40 2,6 C 2,2 C 1,7 C 99 % 999,3 hPa 0,0 l/m 0 min 2 min 82 W/m 6,4 km/h (2 Bft) 100,00 %
26.02.2020 11:42 2,6 C 2,2 C 1,7 C 99 % 999,4 hPa 0,0 l/m 0 min 2 min 83 W/m 3,2 km/h (1 Bft) 100,00 %
26.02.2020 11:44 2,6 C 1,7 C 1,7 C 99 % 999,5 hPa 0,0 l/m 0 min 2 min 72 W/m 19,3 km/h (3 Bft) 100,00 %
26.02.2020 11:46 2,6 C 1,7 C 1,1 C 99 % 999,5 hPa 0,2 l/m 0 min 2 min 57 W/m 12,9 km/h (3 Bft) 100,00 %
26.02.2020 11:48 2,4 C 1,7 C 1,1 C 99 % 999,6 hPa 0,0 l/m 0 min 2 min 79 W/m 6,4 km/h (2 Bft) 100,00 %
26.02.2020 11:50 2,4 C 1,7 C 1,7 C 99 % 999,6 hPa 0,2 l/m 0 min 2 min 94 W/m 0,0 km/h (0 Bft) 100,00 %
26.02.2020 11:52 2,4 C 1,7 C 1,7 C 99 % 999,6 hPa 0,0 l/m 0 min 2 min 68 W/m 29,0 km/h (5 Bft) 100,00 %
26.02.2020 11:54 2,4 C 1,7 C 1,1 C 99 % 999,7 hPa 0,0 l/m 0 min 2 min 37 W/m 6,4 km/h (2 Bft) 100,00 %
26.02.2020 11:56 2,4 C 1,7 C 1,7 C 99 % 999,7 hPa 0,0 l/m 0 min 2 min 44 W/m 12,9 km/h (3 Bft) 100,00 %
26.02.2020 11:58 2,4 C 1,7 C 1,7 C 99 % 999,7 hPa 0,0 l/m 0 min 2 min 48 W/m 0,0 km/h (0 Bft) 100,00 %
26.02.2020 12:00 2,4 C 1,7 C 1,7 C 99 % 999,7 hPa 0,0 l/m 0 min 2 min 60 W/m 0,0 km/h (0 Bft) 100,00 %
26.02.2020 12:02 2,4 C 2,2 C 1,7 C 99 % 999,7 hPa 0,0 l/m 0 min 2 min 115 W/m 0,0 km/h (0 Bft) 100,00 %
26.02.2020 12:04 2,4 C 2,8 C 2,2 C 99 % 999,8 hPa 0,0 l/m 0 min 2 min 156 W/m 6,4 km/h (2 Bft) 100,00 %
26.02.2020 12:08 2,6 C 2,8 C 2,2 C 99 % 999,8 hPa 0,0 l/m 0 min 4 min 161 W/m 6,4 km/h (2 Bft) 100,00 %
26.02.2020 12:10 2,7 C 2,8 C 2,2 C 99 % 999,9 hPa 0,0 l/m 0 min 2 min 147 W/m 0,0 km/h (0 Bft) 97,87 %
26.02.2020 12:12 2,7 C 3,3 C 2,8 C 99 % 999,9 hPa 0,0 l/m 0 min 2 min 162 W/m 0,0 km/h (0 Bft) 100,00 %
26.02.2020 12:14 2,8 C 3,9 C 2,8 C 99 % 999,8 hPa 0,0 l/m 0 min 2 min 236 W/m 6,4 km/h (2 Bft) 100,00 %
26.02.2020 12:16 2,9 C 4,4 C 3,3 C 99 % 999,9 hPa 0,0 l/m 2 min 2 min 256 W/m 6,4 km/h (2 Bft) 97,87 %
26.02.2020 12:18 3,1 C 5,0 C 3,3 C 99 % 999,9 hPa 0,0 l/m 2 min 2 min 285 W/m 0,0 km/h (0 Bft) 97,87 %
26.02.2020 12:20 3,2 C 6,1 C 3,9 C 99 % 999,9 hPa 0,0 l/m 2 min 2 min 392 W/m 12,9 km/h (3 Bft) 97,87 %
26.02.2020 12:22 3,4 C 6,1 C 3,9 C 99 % 999,9 hPa 0,0 l/m 2 min 2 min 401 W/m 12,9 km/h (3 Bft) 97,87 %
26.02.2020 12:24 3,6 C 6,1 C 3,9 C 99 % 999,9 hPa 0,0 l/m 2 min 0 min 364 W/m 3,2 km/h (1 Bft) 95,65 %
26.02.2020 12:26 3,7 C 7,2 C 4,4 C 99 % 999,9 hPa 0,0 l/m 2 min 0 min 313 W/m 0,0 km/h (0 Bft) 95,74 %
26.02.2020 12:28 3,9 C 6,7 C 4,4 C 99 % 999,9 hPa 0,0 l/m 2 min 0 min 313 W/m 16,1 km/h (3 Bft) 97,87 %
26.02.2020 12:30 4,1 C 6,7 C 4,4 C 99 % 999,9 hPa 0,0 l/m 2 min 0 min 345 W/m 0,0 km/h (0 Bft) 97,87 %
26.02.2020 12:32 4,2 C 5,6 C 3,9 C 99 % 1000,0 hPa 0,0 l/m 2 min 0 min 260 W/m 6,4 km/h (2 Bft) 100,00 %
26.02.2020 12:34 4,2 C 5,0 C 3,9 C 99 % 999,9 hPa 0,0 l/m 2 min 0 min 264 W/m 3,2 km/h (1 Bft) 97,83 %
26.02.2020 12:36 4,3 C 5,0 C 3,9 C 99 % 1000,0 hPa 0,0 l/m 0 min 0 min 196 W/m 3,2 km/h (1 Bft) 95,74 %
26.02.2020 12:38 4,3 C 4,4 C 3,9 C 99 % 1000,0 hPa 0,0 l/m 0 min 0 min 123 W/m 0,0 km/h (0 Bft) 97,87 %
26.02.2020 12:40 4,3 C 4,4 C 3,3 C 99 % 1000,0 hPa 0,0 l/m 0 min 0 min 118 W/m 19,3 km/h (3 Bft) 97,87 %
26.02.2020 12:42 4,3 C 3,9 C 3,3 C 99 % 1000,0 hPa 0,0 l/m 0 min 0 min 91 W/m 3,2 km/h (1 Bft) 95,74 %
26.02.2020 12:44 4,2 C 3,9 C 2,8 C 99 % 1000,0 hPa 0,0 l/m 0 min 2 min 88 W/m 25,7 km/h (4 Bft) 97,87 %
26.02.2020 12:46 4,1 C 3,3 C 2,8 C 99 % 1000,0 hPa 0,0 l/m 0 min 2 min 103 W/m 19,3 km/h (3 Bft) 97,87 %
26.02.2020 12:48 4,1 C 3,3 C 2,8 C 99 % 1000,0 hPa 0,0 l/m 0 min 2 min 104 W/m 12,9 km/h (3 Bft) 95,65 %
26.02.2020 12:50 4,1 C 3,3 C 2,8 C 99 % 1000,1 hPa 0,0 l/m 0 min 2 min 95 W/m 12,9 km/h (3 Bft) 93,62 %
26.02.2020 12:52 4,0 C 3,3 C 2,8 C 99 % 1000,2 hPa 0,0 l/m 0 min 2 min 100 W/m 22,5 km/h (4 Bft) 93,62 %
26.02.2020 12:54 4,0 C 3,3 C 2,8 C 99 % 1000,2 hPa 0,0 l/m 0 min 2 min 100 W/m 0,0 km/h (0 Bft) 95,74 %
26.02.2020 12:56 3,9 C 3,3 C 2,8 C 99 % 1000,3 hPa 0,0 l/m 0 min 2 min 71 W/m 16,1 km/h (3 Bft) 95,74 %
26.02.2020 12:58 3,9 C 3,3 C 2,8 C 99 % 1000,3 hPa 0,0 l/m 0 min 2 min 72 W/m 9,7 km/h (2 Bft) 95,65 %
26.02.2020 13:00 3,9 C 2,8 C 2,8 C 99 % 1000,3 hPa 0,0 l/m 0 min 2 min 92 W/m 19,3 km/h (3 Bft) 97,87 %
26.02.2020 13:02 3,8 C 2,8 C 2,8 C 99 % 1000,4 hPa 0,0 l/m 0 min 2 min 89 W/m 16,1 km/h (3 Bft) 93,62 %
26.02.2020 13:04 3,8 C 3,3 C 2,8 C 99 % 1000,4 hPa 0,0 l/m 0 min 2 min 102 W/m 9,7 km/h (2 Bft) 91,49 %
26.02.2020 13:06 3,8 C 3,3 C 2,8 C 99 % 1000,4 hPa 0,0 l/m 0 min 2 min 135 W/m 9,7 km/h (2 Bft) 95,74 %
26.02.2020 13:08 3,8 C 3,3 C 2,8 C 99 % 1000,4 hPa 0,0 l/m 0 min 2 min 139 W/m 3,2 km/h (1 Bft) 97,87 %
26.02.2020 13:10 3,8 C 3,3 C 2,8 C 99 % 1000,3 hPa 0,0 l/m 0 min 2 min 139 W/m 16,1 km/h (3 Bft) 95,65 %
26.02.2020 13:12 3,8 C 3,3 C 2,8 C 99 % 1000,4 hPa 0,0 l/m 0 min 2 min 123 W/m 12,9 km/h (3 Bft) 91,49 %
26.02.2020 13:14 3,7 C 3,3 C 2,8 C 99 % 1000,4 hPa 0,0 l/m 0 min 2 min 114 W/m 16,1 km/h (3 Bft) 91,49 %
26.02.2020 13:16 3,7 C 3,3 C 2,8 C 99 % 1000,5 hPa 0,0 l/m 0 min 2 min 123 W/m 19,3 km/h (3 Bft) 95,74 %
26.02.2020 13:18 3,7 C 3,3 C 2,8 C 99 % 1000,5 hPa 0,0 l/m 0 min 0 min 137 W/m 3,2 km/h (1 Bft) 95,74 %
26.02.2020 13:20 3,7 C 3,3 C 2,8 C 99 % 1000,5 hPa 0,0 l/m 0 min 2 min 141 W/m 19,3 km/h (3 Bft) 95,74 %
26.02.2020 13:22 3,7 C 3,3 C 2,8 C 99 % 1000,5 hPa 0,0 l/m 0 min 0 min 158 W/m 0,0 km/h (0 Bft) 93,48 %
26.02.2020 13:24 3,7 C 3,9 C 3,3 C 99 % 1000,5 hPa 0,0 l/m 0 min 2 min 233 W/m 22,5 km/h (4 Bft) 95,74 %
26.02.2020 13:26 3,7 C 3,9 C 3,3 C 99 % 1000,5 hPa 0,0 l/m 2 min 0 min 261 W/m 16,1 km/h (3 Bft) 95,74 %
26.02.2020 13:28 3,7 C 3,9 C 3,3 C 99 % 1000,5 hPa 0,0 l/m 0 min 0 min 231 W/m 25,7 km/h (4 Bft) 95,74 %
26.02.2020 13:30 3,7 C 4,4 C 3,3 C 99 % 1000,5 hPa 0,0 l/m 0 min 0 min 236 W/m 16,1 km/h (3 Bft) 95,74 %
26.02.2020 13:32 3,8 C 4,4 C 3,3 C 99 % 1000,6 hPa 0,0 l/m 0 min 0 min 224 W/m 19,3 km/h (3 Bft) 91,49 %
26.02.2020 13:34 3,8 C 4,4 C 3,3 C 99 % 1000,6 hPa 0,0 l/m 0 min 0 min 222 W/m 16,1 km/h (3 Bft) 97,83 %
26.02.2020 13:36 3,8 C 4,4 C 3,3 C 99 % 1000,6 hPa 0,0 l/m 0 min 0 min 203 W/m 16,1 km/h (3 Bft) 97,87 %
26.02.2020 13:38 3,8 C 5,0 C 3,3 C 99 % 1000,7 hPa 0,0 l/m 0 min 0 min 191 W/m 16,1 km/h (3 Bft) 97,87 %
26.02.2020 13:40 3,9 C 4,4 C 3,3 C 99 % 1000,8 hPa 0,0 l/m 0 min 0 min 209 W/m 16,1 km/h (3 Bft) 95,74 %
26.02.2020 13:42 3,9 C 5,6 C 3,3 C 99 % 1000,8 hPa 0,0 l/m 2 min 0 min 272 W/m 16,1 km/h (3 Bft) 97,87 %
26.02.2020 13:44 3,9 C 7,8 C 3,9 C 99 % 1000,8 hPa 0,0 l/m 2 min 0 min 350 W/m 22,5 km/h (4 Bft) 93,48 %
26.02.2020 13:46 4,1 C 7,2 C 3,9 C 99 % 1000,9 hPa 0,0 l/m 2 min 0 min 309 W/m 16,1 km/h (3 Bft) 97,87 %
26.02.2020 13:48 4,2 C 6,1 C 3,9 C 99 % 1000,8 hPa 0,0 l/m 2 min 0 min 343 W/m 12,9 km/h (3 Bft) 97,87 %
26.02.2020 13:50 4,2 C 5,6 C 3,9 C 99 % 1000,9 hPa 0,0 l/m 0 min 0 min 232 W/m 16,1 km/h (3 Bft) 95,74 %
26.02.2020 13:52 4,3 C 5,6 C 3,9 C 99 % 1000,9 hPa 0,0 l/m 2 min 0 min 244 W/m 12,9 km/h (3 Bft) 95,74 %
26.02.2020 13:54 4,3 C 5,0 C 3,9 C 99 % 1001,0 hPa 0,0 l/m 0 min 0 min 172 W/m 16,1 km/h (3 Bft) 95,74 %
26.02.2020 13:56 4,3 C 5,0 C 3,9 C 99 % 1001,0 hPa 0,0 l/m 0 min 0 min 135 W/m 12,9 km/h (3 Bft) 97,83 %
26.02.2020 13:58 4,3 C 4,4 C 3,3 C 99 % 1001,0 hPa 0,0 l/m 0 min 0 min 90 W/m 16,1 km/h (3 Bft) 97,87 %
26.02.2020 14:00 4,3 C 4,4 C 3,3 C 99 % 1001,0 hPa 0,0 l/m 0 min 0 min 69 W/m 19,3 km/h (3 Bft) 97,87 %
26.02.2020 14:02 4,3 C 3,9 C 3,3 C 99 % 1001,1 hPa 0,0 l/m 0 min 0 min 84 W/m 25,7 km/h (4 Bft) 97,87 %
26.02.2020 14:04 4,2 C 4,4 C 3,3 C 99 % 1001,1 hPa 0,0 l/m 0 min 0 min 92 W/m 9,7 km/h (2 Bft) 97,87 %
26.02.2020 14:06 4,2 C 4,4 C 3,3 C 99 % 1001,2 hPa 0,0 l/m 0 min 0 min 101 W/m 12,9 km/h (3 Bft) 97,87 %
26.02.2020 14:08 4,2 C 4,4 C 3,3 C 99 % 1001,2 hPa 0,0 l/m 0 min 0 min 107 W/m 12,9 km/h (3 Bft) 97,83 %
26.02.2020 14:10 4,2 C 4,4 C 3,3 C 99 % 1001,2 hPa 0,0 l/m 0 min 0 min 99 W/m 16,1 km/h (3 Bft) 100,00 %
26.02.2020 14:12 4,2 C 4,4 C 3,3 C 99 % 1001,2 hPa 0,0 l/m 0 min 0 min 94 W/m 19,3 km/h (3 Bft) 100,00 %
26.02.2020 14:14 4,2 C 3,9 C 2,8 C 99 % 1001,2 hPa 0,0 l/m 0 min 0 min 103 W/m 22,5 km/h (4 Bft) 100,00 %
26.02.2020 14:16 4,1 C 3,9 C 2,8 C 99 % 1001,2 hPa 0,0 l/m 0 min 2 min 116 W/m 16,1 km/h (3 Bft) 100,00 %
26.02.2020 14:18 4,1 C 3,9 C 2,8 C 98 % 1001,2 hPa 0,0 l/m 0 min 2 min 165 W/m 16,1 km/h (3 Bft) 100,00 %
26.02.2020 14:20 4,1 C 4,4 C 2,8 C 98 % 1001,3 hPa 0,0 l/m 2 min 0 min 233 W/m 32,2 km/h (5 Bft) 100,00 %
26.02.2020 14:22 4,1 C 5,0 C 3,3 C 98 % 1001,3 hPa 0,0 l/m 2 min 2 min 274 W/m 19,3 km/h (3 Bft) 100,00 %
26.02.2020 14:24 4,1 C 5,0 C 3,3 C 98 % 1001,5 hPa 0,0 l/m 2 min 0 min 297 W/m 19,3 km/h (3 Bft) 100,00 %
26.02.2020 14:26 4,1 C 5,0 C 3,3 C 98 % 1001,5 hPa 0,0 l/m 2 min 0 min 301 W/m 16,1 km/h (3 Bft) 97,87 %
26.02.2020 14:28 4,1 C 5,0 C 3,3 C 98 % 1001,5 hPa 0,0 l/m 2 min 2 min 284 W/m 35,4 km/h (5 Bft) 100,00 %
26.02.2020 14:30 4,1 C 5,0 C 3,3 C 98 % 1001,5 hPa 0,0 l/m 2 min 2 min 220 W/m 19,3 km/h (3 Bft) 100,00 %
26.02.2020 14:32 4,2 C 5,0 C 3,3 C 98 % 1001,5 hPa 0,0 l/m 0 min 0 min 211 W/m 9,7 km/h (2 Bft) 100,00 %
26.02.2020 14:34 4,2 C 5,0 C 3,3 C 98 % 1001,6 hPa 0,0 l/m 2 min 0 min 248 W/m 9,7 km/h (2 Bft) 100,00 %
26.02.2020 14:36 4,2 C 5,6 C 3,3 C 98 % 1001,7 hPa 0,0 l/m 2 min 0 min 242 W/m 16,1 km/h (3 Bft) 100,00 %
26.02.2020 14:38 4,3 C 5,6 C 3,9 C 98 % 1001,7 hPa 0,0 l/m 2 min 0 min 247 W/m 19,3 km/h (3 Bft) 100,00 %
26.02.2020 14:40 4,3 C 5,6 C 3,9 C 98 % 1001,7 hPa 0,0 l/m 2 min 0 min 248 W/m 16,1 km/h (3 Bft) 100,00 %
26.02.2020 14:42 4,3 C 5,6 C 3,9 C 98 % 1001,7 hPa 0,0 l/m 2 min 0 min 265 W/m 25,7 km/h (4 Bft) 100,00 %
26.02.2020 14:44 4,4 C 6,1 C 3,9 C 98 % 1001,7 hPa 0,0 l/m 2 min 0 min 291 W/m 19,3 km/h (3 Bft) 100,00 %
26.02.2020 14:46 4,5 C 6,1 C 3,9 C 98 % 1001,7 hPa 0,0 l/m 2 min 0 min 265 W/m 16,1 km/h (3 Bft) 97,87 %
26.02.2020 14:48 4,6 C 5,6 C 3,9 C 98 % 1001,7 hPa 0,0 l/m 2 min 0 min 258 W/m 19,3 km/h (3 Bft) 100,00 %
26.02.2020 14:50 4,6 C 5,6 C 3,9 C 98 % 1001,7 hPa 0,0 l/m 2 min 2 min 222 W/m 19,3 km/h (3 Bft) 100,00 %
26.02.2020 14:52 4,6 C 5,0 C 3,9 C 98 % 1001,7 hPa 0,0 l/m 0 min 2 min 150 W/m 16,1 km/h (3 Bft) 100,00 %
26.02.2020 14:54 4,6 C 4,4 C 3,3 C 98 % 1001,7 hPa 0,0 l/m 0 min 0 min 122 W/m 16,1 km/h (3 Bft) 100,00 %
26.02.2020 14:56 4,6 C 4,4 C 3,3 C 98 % 1001,8 hPa 0,0 l/m 0 min 0 min 124 W/m 16,1 km/h (3 Bft) 100,00 %
26.02.2020 14:58 4,6 C 4,4 C 3,3 C 98 % 1001,8 hPa 0,0 l/m 0 min 0 min 117 W/m 9,7 km/h (2 Bft) 100,00 %
26.02.2020 15:00 4,6 C 5,0 C 3,9 C 98 % 1001,7 hPa 0,0 l/m 0 min 0 min 169 W/m 19,3 km/h (3 Bft) 100,00 %
26.02.2020 15:02 4,6 C 5,0 C 3,9 C 98 % 1001,8 hPa 0,0 l/m 0 min 0 min 147 W/m 25,7 km/h (4 Bft) 97,87 %
26.02.2020 15:04 4,6 C 4,4 C 3,3 C 97 % 1001,8 hPa 0,0 l/m 0 min 0 min 102 W/m 16,1 km/h (3 Bft) 95,74 %
26.02.2020 15:06 4,6 C 5,0 C 3,3 C 97 % 1001,9 hPa 0,0 l/m 0 min 0 min 153 W/m 29,0 km/h (5 Bft) 97,83 %
26.02.2020 15:08 4,6 C 5,0 C 3,9 C 97 % 1001,9 hPa 0,0 l/m 2 min 0 min 197 W/m 16,1 km/h (3 Bft) 95,74 %
26.02.2020 15:10 4,6 C 5,0 C 3,9 C 97 % 1001,9 hPa 0,0 l/m 0 min 0 min 142 W/m 16,1 km/h (3 Bft) 97,87 %
26.02.2020 15:12 4,6 C 4,4 C 3,3 C 97 % 1001,9 hPa 0,0 l/m 0 min 0 min 93 W/m 25,7 km/h (4 Bft) 95,74 %
26.02.2020 15:14 4,6 C 4,4 C 3,3 C 97 % 1001,9 hPa 0,0 l/m 0 min 0 min 91 W/m 16,1 km/h (3 Bft) 95,74 %
26.02.2020 15:16 4,6 C 4,4 C 3,3 C 97 % 1001,9 hPa 0,0 l/m 0 min 0 min 97 W/m 38,6 km/h (5 Bft) 95,74 %
26.02.2020 15:18 4,6 C 4,4 C 3,3 C 97 % 1002,0 hPa 0,0 l/m 0 min 0 min 80 W/m 22,5 km/h (4 Bft) 95,65 %
26.02.2020 15:20 4,6 C 4,4 C 3,3 C 97 % 1002,0 hPa 0,0 l/m 0 min 0 min 83 W/m 32,2 km/h (5 Bft) 95,74 %
26.02.2020 15:22 4,6 C 4,4 C 3,3 C 97 % 1002,1 hPa 0,0 l/m 0 min 0 min 66 W/m 16,1 km/h (3 Bft) 95,74 %
26.02.2020 15:24 4,5 C 3,9 C 3,3 C 96 % 1002,2 hPa 0,0 l/m 0 min 0 min 56 W/m 25,7 km/h (4 Bft) 91,49 %
26.02.2020 15:26 4,4 C 3,9 C 2,8 C 96 % 1002,2 hPa 0,0 l/m 0 min 0 min 50 W/m 16,1 km/h (3 Bft) 93,62 %
26.02.2020 15:28 4,4 C 3,9 C 2,8 C 96 % 1002,2 hPa 0,0 l/m 0 min 0 min 52 W/m 19,3 km/h (3 Bft) 95,74 %
26.02.2020 15:30 4,4 C 3,9 C 2,8 C 96 % 1002,3 hPa 0,0 l/m 0 min 0 min 58 W/m 22,5 km/h (4 Bft) 93,48 %
26.02.2020 15:32 4,3 C 3,9 C 2,8 C 96 % 1002,3 hPa 0,0 l/m 0 min 0 min 61 W/m 16,1 km/h (3 Bft) 95,74 %
26.02.2020 15:34 4,3 C 3,9 C 3,3 C 96 % 1002,3 hPa 0,0 l/m 0 min 0 min 76 W/m 9,7 km/h (2 Bft) 97,87 %
26.02.2020 15:36 4,3 C 4,4 C 3,3 C 96 % 1002,3 hPa 0,0 l/m 0 min 0 min 83 W/m 16,1 km/h (3 Bft) 95,74 %
26.02.2020 15:38 4,3 C 4,4 C 3,3 C 96 % 1002,3 hPa 0,0 l/m 0 min 0 min 65 W/m 16,1 km/h (3 Bft) 95,74 %
26.02.2020 15:40 4,3 C 4,4 C 3,3 C 96 % 1002,4 hPa 0,0 l/m 0 min 0 min 63 W/m 16,1 km/h (3 Bft) 95,65 %
26.02.2020 15:42 4,4 C 4,4 C 3,3 C 96 % 1002,4 hPa 0,0 l/m 0 min 0 min 73 W/m 16,1 km/h (3 Bft) 93,62 %
26.02.2020 15:44 4,4 C 4,4 C 3,3 C 96 % 1002,4 hPa 0,0 l/m 0 min 0 min 77 W/m 6,4 km/h (2 Bft) 93,62 %
26.02.2020 15:46 4,4 C 4,4 C 3,3 C 96 % 1002,5 hPa 0,0 l/m 0 min 0 min 70 W/m 6,4 km/h (2 Bft) 95,74 %
26.02.2020 15:48 4,4 C 4,4 C 3,3 C 96 % 1002,5 hPa 0,0 l/m 0 min 0 min 61 W/m 16,1 km/h (3 Bft) 95,74 %
26.02.2020 15:50 4,4 C 4,4 C 3,3 C 96 % 1002,5 hPa 0,0 l/m 0 min 0 min 56 W/m 16,1 km/h (3 Bft) 95,74 %
26.02.2020 15:52 4,4 C 4,4 C 3,3 C 96 % 1002,6 hPa 0,0 l/m 0 min 0 min 63 W/m 16,1 km/h (3 Bft) 95,65 %
26.02.2020 15:54 4,4 C 3,9 C 3,3 C 96 % 1002,6 hPa 0,0 l/m 0 min 0 min 53 W/m 16,1 km/h (3 Bft) 93,62 %
26.02.2020 15:56 4,4 C 3,9 C 3,3 C 96 % 1002,6 hPa 0,0 l/m 0 min 0 min 62 W/m 16,1 km/h (3 Bft) 95,74 %
26.02.2020 15:58 4,4 C 3,9 C 3,3 C 95 % 1002,7 hPa 0,0 l/m 0 min 0 min 65 W/m 19,3 km/h (3 Bft) 97,87 %
26.02.2020 16:00 4,3 C 3,9 C 3,3 C 95 % 1002,7 hPa 0,0 l/m 0 min 0 min 77 W/m 12,9 km/h (3 Bft) 95,74 %
26.02.2020 16:02 4,3 C 3,9 C 3,3 C 95 % 1002,7 hPa 0,0 l/m 0 min 0 min 102 W/m 19,3 km/h (3 Bft) 93,62 %
26.02.2020 16:04 4,3 C 3,9 C 3,3 C 95 % 1002,8 hPa 0,0 l/m 0 min 0 min 104 W/m 16,1 km/h (3 Bft) 97,83 %
26.02.2020 16:06 4,3 C 3,9 C 3,3 C 95 % 1002,7 hPa 0,0 l/m 0 min 0 min 87 W/m 9,7 km/h (2 Bft) 100,00 %
26.02.2020 16:08 4,3 C 4,4 C 3,3 C 95 % 1002,8 hPa 0,0 l/m 0 min 0 min 85 W/m 9,7 km/h (2 Bft) 97,87 %
26.02.2020 16:10 4,2 C 3,9 C 3,3 C 95 % 1002,7 hPa 0,0 l/m 0 min 0 min 90 W/m 19,3 km/h (3 Bft) 100,00 %
26.02.2020 16:12 4,2 C 4,4 C 3,3 C 95 % 1002,7 hPa 0,0 l/m 0 min 0 min 88 W/m 6,4 km/h (2 Bft) 100,00 %
26.02.2020 16:14 4,2 C 4,4 C 3,3 C 95 % 1002,8 hPa 0,0 l/m 0 min 0 min 110 W/m 12,9 km/h (3 Bft) 97,87 %
26.02.2020 16:16 4,2 C 4,4 C 3,3 C 95 % 1002,8 hPa 0,0 l/m 0 min 0 min 91 W/m 9,7 km/h (2 Bft) 97,83 %
26.02.2020 16:18 4,2 C 4,4 C 3,3 C 95 % 1002,8 hPa 0,0 l/m 0 min 0 min 72 W/m 9,7 km/h (2 Bft) 100,00 %
26.02.2020 16:20 4,2 C 3,9 C 3,3 C 95 % 1002,9 hPa 0,0 l/m 0 min 0 min 54 W/m 12,9 km/h (3 Bft) 100,00 %
26.02.2020 16:22 4,2 C 3,9 C 3,3 C 95 % 1002,9 hPa 0,0 l/m 0 min 0 min 44 W/m 3,2 km/h (1 Bft) 100,00 %
26.02.2020 16:24 4,2 C 3,9 C 3,3 C 95 % 1003,0 hPa 0,0 l/m 0 min 0 min 34 W/m 12,9 km/h (3 Bft) 100,00 %
26.02.2020 16:26 4,2 C 3,9 C 2,8 C 95 % 1003,0 hPa 0,0 l/m 0 min 2 min 30 W/m 19,3 km/h (3 Bft) 97,87 %
26.02.2020 16:28 4,2 C 3,3 C 2,8 C 95 % 1003,0 hPa 0,0 l/m 0 min 2 min 43 W/m 12,9 km/h (3 Bft) 100,00 %
26.02.2020 16:30 4,1 C 3,3 C 2,8 C 95 % 1003,0 hPa 0,0 l/m 0 min 2 min 64 W/m 12,9 km/h (3 Bft) 97,87 %
26.02.2020 16:32 4,1 C 3,3 C 2,8 C 95 % 1003,0 hPa 0,0 l/m 0 min 2 min 69 W/m 3,2 km/h (1 Bft) 97,87 %
26.02.2020 16:34 4,1 C 3,3 C 2,8 C 95 % 1003,0 hPa 0,0 l/m 0 min 2 min 69 W/m 16,1 km/h (3 Bft) 95,74 %
26.02.2020 16:36 4,1 C 3,3 C 2,8 C 95 % 1003,0 hPa 0,0 l/m 0 min 0 min 64 W/m 0,0 km/h (0 Bft) 97,87 %
26.02.2020 16:38 4,1 C 3,3 C 2,8 C 95 % 1003,0 hPa 0,0 l/m 0 min 0 min 56 W/m 16,1 km/h (3 Bft) 97,83 %
26.02.2020 16:40 4,1 C 3,3 C 2,8 C 95 % 1003,0 hPa 0,0 l/m 0 min 0 min 50 W/m 12,9 km/h (3 Bft) 97,87 %
26.02.2020 16:42 4,1 C 3,3 C 2,8 C 95 % 1003,0 hPa 0,0 l/m 0 min 0 min 37 W/m 16,1 km/h (3 Bft) 97,87 %
26.02.2020 16:44 4,1 C 3,3 C 2,8 C 95 % 1003,0 hPa 0,0 l/m 0 min 0 min 31 W/m 16,1 km/h (3 Bft) 95,74 %
26.02.2020 16:46 4,0 C 3,3 C 2,8 C 95 % 1003,0 hPa 0,0 l/m 0 min 2 min 33 W/m 16,1 km/h (3 Bft) 95,74 %
26.02.2020 16:48 4,0 C 3,3 C 2,8 C 94 % 1003,1 hPa 0,0 l/m 0 min 2 min 28 W/m 9,7 km/h (2 Bft) 97,87 %
26.02.2020 16:50 4,0 C 3,3 C 2,8 C 94 % 1003,2 hPa 0,0 l/m 0 min 0 min 17 W/m 12,9 km/h (3 Bft) 97,83 %
26.02.2020 16:52 4,0 C 3,3 C 2,8 C 94 % 1003,3 hPa 0,0 l/m 0 min 2 min 10 W/m 12,9 km/h (3 Bft) 93,62 %
26.02.2020 16:54 4,0 C 3,3 C 2,8 C 94 % 1003,4 hPa 0,0 l/m 0 min 0 min 8 W/m 19,3 km/h (3 Bft) 97,87 %
26.02.2020 16:56 3,9 C 2,8 C 2,2 C 94 % 1003,5 hPa 0,0 l/m 0 min 2 min 8 W/m 12,9 km/h (3 Bft) 97,87 %
26.02.2020 16:58 3,9 C 2,2 C 2,2 C 95 % 1003,5 hPa 0,2 l/m 0 min 2 min 7 W/m 12,9 km/h (3 Bft) 97,87 %
26.02.2020 17:00 3,9 C 2,8 C 2,2 C 95 % 1003,6 hPa 0,2 l/m 0 min 2 min 6 W/m 9,7 km/h (2 Bft) 95,74 %
26.02.2020 17:02 3,9 C 2,8 C 2,2 C 95 % 1003,7 hPa 0,2 l/m 0 min 2 min 5 W/m 19,3 km/h (3 Bft) 97,83 %
26.02.2020 17:04 3,9 C 2,2 C 2,2 C 95 % 1003,6 hPa 0,0 l/m 0 min 2 min 6 W/m 22,5 km/h (4 Bft) 97,87 %
26.02.2020 17:06 3,8 C 2,2 C 1,7 C 95 % 1003,6 hPa 0,2 l/m 0 min 2 min 9 W/m 12,9 km/h (3 Bft) 95,74 %
26.02.2020 17:08 3,8 C 2,2 C 1,7 C 95 % 1003,6 hPa 0,0 l/m 0 min 2 min 16 W/m 9,7 km/h (2 Bft) 97,87 %
26.02.2020 17:10 3,7 C 2,2 C 2,2 C 95 % 1003,6 hPa 0,0 l/m 0 min 2 min 17 W/m 6,4 km/h (2 Bft) 93,62 %
26.02.2020 17:12 3,7 C 2,2 C 2,2 C 94 % 1003,6 hPa 0,0 l/m 0 min 0 min 16 W/m 6,4 km/h (2 Bft) 97,87 %
26.02.2020 17:14 3,7 C 2,2 C 2,2 C 95 % 1003,6 hPa 0,0 l/m 0 min 2 min 18 W/m 16,1 km/h (3 Bft) 97,83 %
26.02.2020 17:16 3,6 C 2,2 C 2,2 C 95 % 1003,7 hPa 0,0 l/m 0 min 2 min 22 W/m 6,4 km/h (2 Bft) 100,00 %
26.02.2020 17:18 3,6 C 2,2 C 2,2 C 95 % 1003,8 hPa 0,0 l/m 0 min 0 min 21 W/m 6,4 km/h (2 Bft) 100,00 %
26.02.2020 17:20 3,6 C 2,8 C 2,2 C 95 % 1003,8 hPa 0,0 l/m 0 min 0 min 19 W/m 3,2 km/h (1 Bft) 100,00 %
26.02.2020 17:22 3,6 C 2,8 C 2,2 C 95 % 1003,8 hPa 0,0 l/m 0 min 2 min 23 W/m 3,2 km/h (1 Bft) 97,87 %
26.02.2020 17:24 3,6 C 2,8 C 2,2 C 95 % 1003,8 hPa 0,0 l/m 0 min 2 min 26 W/m 3,2 km/h (1 Bft) 100,00 %
26.02.2020 17:26 3,6 C 2,8 C 2,2 C 95 % 1003,8 hPa 0,0 l/m 0 min 2 min 27 W/m 6,4 km/h (2 Bft) 100,00 %
26.02.2020 17:28 3,6 C 2,8 C 2,2 C 95 % 1003,9 hPa 0,0 l/m 0 min 2 min 33 W/m 9,7 km/h (2 Bft) 97,87 %
26.02.2020 17:30 3,6 C 2,8 C 2,2 C 95 % 1003,8 hPa 0,0 l/m 0 min 2 min 41 W/m 6,4 km/h (2 Bft) 100,00 %
26.02.2020 17:32 3,6 C 2,8 C 2,2 C 95 % 1003,9 hPa 0,0 l/m 2 min 2 min 49 W/m 6,4 km/h (2 Bft) 93,62 %
26.02.2020 17:34 3,6 C 2,8 C 2,2 C 95 % 1003,9 hPa 0,0 l/m 2 min 0 min 48 W/m 3,2 km/h (1 Bft) 100,00 %
26.02.2020 17:36 3,6 C 2,8 C 2,2 C 95 % 1003,9 hPa 0,0 l/m 2 min 2 min 39 W/m 6,4 km/h (2 Bft) 100,00 %
26.02.2020 17:38 3,6 C 2,8 C 2,2 C 95 % 1003,9 hPa 0,0 l/m 2 min 2 min 34 W/m 0,0 km/h (0 Bft) 100,00 %
26.02.2020 17:40 3,6 C 2,8 C 2,2 C 95 % 1004,0 hPa 0,0 l/m 0 min 0 min 28 W/m 0,0 km/h (0 Bft) 100,00 %
26.02.2020 17:42 3,6 C 2,8 C 2,2 C 95 % 1004,0 hPa 0,0 l/m 0 min 0 min 20 W/m 0,0 km/h (0 Bft) 100,00 %
26.02.2020 17:44 3,6 C 2,8 C 2,2 C 95 % 1004,1 hPa 0,0 l/m 0 min 0 min 16 W/m 0,0 km/h (0 Bft) 100,00 %
26.02.2020 17:46 3,6 C 2,8 C 2,2 C 95 % 1004,1 hPa 0,0 l/m 0 min 0 min 14 W/m 0,0 km/h (0 Bft) 100,00 %
26.02.2020 17:48 3,6 C 2,8 C 2,2 C 95 % 1004,1 hPa 0,0 l/m 0 min 0 min 12 W/m 0,0 km/h (0 Bft) 97,83 %
26.02.2020 17:50 3,6 C 2,8 C 2,2 C 95 % 1004,1 hPa 0,0 l/m 0 min 2 min 12 W/m 0,0 km/h (0 Bft) 100,00 %
26.02.2020 17:52 3,6 C 2,8 C 2,2 C 95 % 1004,1 hPa 0,0 l/m 0 min 2 min 16 W/m 0,0 km/h (0 Bft) 97,87 %
26.02.2020 17:54 3,6 C 2,8 C 2,2 C 95 % 1004,1 hPa 0,0 l/m 0 min 2 min 16 W/m 0,0 km/h (0 Bft) 97,87 %
26.02.2020 17:56 3,6 C 2,8 C 2,2 C 96 % 1004,2 hPa 0,0 l/m 0 min 2 min 15 W/m 0,0 km/h (0 Bft) 100,00 %
26.02.2020 17:58 3,6 C 2,8 C 2,2 C 96 % 1004,2 hPa 0,0 l/m 0 min 2 min 13 W/m 0,0 km/h (0 Bft) 97,87 %
26.02.2020 18:00 3,6 C 2,8 C 2,2 C 96 % 1004,2 hPa 0,0 l/m 0 min 0 min 14 W/m 0,0 km/h (0 Bft) 95,65 %
26.02.2020 18:02 3,6 C 2,8 C 2,2 C 96 % 1004,3 hPa 0,0 l/m 0 min 0 min 10 W/m 0,0 km/h (0 Bft) 95,74 %
26.02.2020 18:04 3,6 C 2,8 C 2,2 C 96 % 1004,3 hPa 0,0 l/m 0 min 0 min 5 W/m 0,0 km/h (0 Bft) 95,74 %
26.02.2020 18:08 3,6 C 2,8 C 2,2 C 96 % 1004,3 hPa 0,0 l/m 0 min 0 min 0 W/m 0,0 km/h (0 Bft) 97,87 %
26.02.2020 18:10 3,6 C 2,8 C 2,2 C 96 % 1004,3 hPa 0,0 l/m 0 min 0 min 0 W/m 3,2 km/h (1 Bft) 97,87 %
26.02.2020 18:12 3,6 C 2,8 C 2,2 C 96 % 1004,3 hPa 0,0 l/m 0 min 0 min 0 W/m 6,4 km/h (2 Bft) 95,65 %
26.02.2020 18:14 3,6 C 2,8 C 2,2 C 96 % 1004,4 hPa 0,0 l/m 0 min 0 min 0 W/m 0,0 km/h (0 Bft) 95,74 %
26.02.2020 18:16 3,6 C 2,8 C 2,2 C 96 % 1004,5 hPa 0,0 l/m 0 min 0 min 0 W/m 0,0 km/h (0 Bft) 97,87 %
26.02.2020 18:18 3,6 C 2,8 C 2,2 C 96 % 1004,4 hPa 0,0 l/m 0 min 0 min 0 W/m 0,0 km/h (0 Bft) 95,74 %
26.02.2020 18:20 3,6 C 2,8 C 2,2 C 96 % 1004,5 hPa 0,0 l/m 0 min 2 min 0 W/m 0,0 km/h (0 Bft) 97,87 %
26.02.2020 18:22 3,6 C 2,8 C 2,2 C 96 % 1004,5 hPa 0,2 l/m 0 min 2 min 0 W/m 0,0 km/h (0 Bft) 95,74 %
26.02.2020 18:24 3,6 C 2,8 C 2,2 C 96 % 1004,5 hPa 0,0 l/m 0 min 2 min 0 W/m 0,0 km/h (0 Bft) 95,65 %
26.02.2020 18:26 3,6 C 2,8 C 2,2 C 96 % 1004,6 hPa 0,0 l/m 0 min 2 min 0 W/m 12,9 km/h (3 Bft) 93,62 %
26.02.2020 18:28 3,7 C 2,8 C 2,2 C 96 % 1004,7 hPa 0,0 l/m 0 min 2 min 0 W/m 6,4 km/h (2 Bft) 95,74 %
26.02.2020 18:30 3,7 C 2,8 C 2,2 C 96 % 1004,7 hPa 0,0 l/m 0 min 2 min 0 W/m 3,2 km/h (1 Bft) 93,62 %
26.02.2020 18:32 3,7 C 2,8 C 2,2 C 96 % 1004,8 hPa 0,0 l/m 0 min 2 min 0 W/m 12,9 km/h (3 Bft) 93,62 %
26.02.2020 18:34 3,7 C 2,8 C 2,2 C 96 % 1004,8 hPa 0,0 l/m 0 min 2 min 0 W/m 6,4 km/h (2 Bft) 93,62 %
26.02.2020 18:36 3,7 C 2,8 C 2,2 C 96 % 1004,8 hPa 0,0 l/m 0 min 2 min 0 W/m 6,4 km/h (2 Bft) 95,65 %
26.02.2020 18:38 3,7 C 2,2 C 2,2 C 96 % 1004,9 hPa 0,0 l/m 0 min 0 min 0 W/m 6,4 km/h (2 Bft) 97,87 %
26.02.2020 18:40 3,6 C 2,2 C 2,2 C 96 % 1004,9 hPa 0,0 l/m 0 min 2 min 0 W/m 6,4 km/h (2 Bft) 97,87 %
26.02.2020 18:42 3,6 C 2,2 C 2,2 C 96 % 1004,9 hPa 0,0 l/m 0 min 2 min 0 W/m 3,2 km/h (1 Bft) 97,87 %
26.02.2020 18:44 3,6 C 2,2 C 1,7 C 96 % 1005,0 hPa 0,0 l/m 0 min 0 min 0 W/m 6,4 km/h (2 Bft) 97,87 %
26.02.2020 18:46 3,6 C 2,2 C 1,7 C 96 % 1005,0 hPa 0,0 l/m 0 min 0 min 0 W/m 9,7 km/h (2 Bft) 95,65 %
26.02.2020 18:48 3,6 C 2,2 C 1,7 C 96 % 1005,0 hPa 0,0 l/m 0 min 0 min 0 W/m 3,2 km/h (1 Bft) 97,87 %
26.02.2020 18:50 3,6 C 2,2 C 1,7 C 96 % 1005,1 hPa 0,0 l/m 0 min 0 min 0 W/m 6,4 km/h (2 Bft) 97,87 %
26.02.2020 18:52 3,5 C 2,2 C 1,7 C 96 % 1005,1 hPa 0,0 l/m 0 min 0 min 0 W/m 6,4 km/h (2 Bft) 97,87 %
26.02.2020 18:54 3,4 C 2,2 C 1,7 C 96 % 1005,1 hPa 0,0 l/m 0 min 2 min 0 W/m 6,4 km/h (2 Bft) 95,74 %
26.02.2020 18:56 3,4 C 2,2 C 1,7 C 96 % 1005,2 hPa 0,0 l/m 0 min 0 min 0 W/m 6,4 km/h (2 Bft) 97,87 %
26.02.2020 18:58 3,4 C 2,2 C 1,7 C 96 % 1005,2 hPa 0,0 l/m 0 min 2 min 0 W/m 12,9 km/h (3 Bft) 95,65 %
26.02.2020 19:00 3,4 C 2,2 C 1,7 C 96 % 1005,2 hPa 0,0 l/m 0 min 2 min 0 W/m 6,4 km/h (2 Bft) 97,87 %
26.02.2020 19:02 3,4 C 2,2 C 1,7 C 96 % 1005,2 hPa 0,0 l/m 0 min 2 min 0 W/m 12,9 km/h (3 Bft) 93,62 %
26.02.2020 19:04 3,3 C 2,2 C 1,7 C 96 % 1005,3 hPa 0,0 l/m 0 min 2 min 0 W/m 6,4 km/h (2 Bft) 97,87 %
26.02.2020 19:06 3,3 C 2,2 C 1,7 C 96 % 1005,2 hPa 0,0 l/m 0 min 0 min 0 W/m 12,9 km/h (3 Bft) 97,87 %
26.02.2020 19:08 3,3 C 2,2 C 1,7 C 96 % 1005,3 hPa 0,0 l/m 0 min 2 min 0 W/m 3,2 km/h (1 Bft) 97,87 %
26.02.2020 19:10 3,3 C 2,2 C 1,7 C 96 % 1005,4 hPa 0,0 l/m 0 min 2 min 0 W/m 9,7 km/h (2 Bft) 95,65 %
26.02.2020 19:12 3,3 C 2,2 C 1,7 C 96 % 1005,4 hPa 0,0 l/m 0 min 2 min 0 W/m 6,4 km/h (2 Bft) 93,62 %
26.02.2020 19:14 3,3 C 2,2 C 1,7 C 96 % 1005,4 hPa 0,0 l/m 0 min 2 min 0 W/m 6,4 km/h (2 Bft) 95,74 %
26.02.2020 19:16 3,3 C 2,2 C 1,7 C 96 % 1005,5 hPa 0,0 l/m 0 min 0 min 0 W/m 9,7 km/h (2 Bft) 93,62 %
26.02.2020 19:18 3,2 C 2,2 C 1,7 C 96 % 1005,4 hPa 0,0 l/m 0 min 0 min 0 W/m 9,7 km/h (2 Bft) 93,62 %
26.02.2020 19:20 3,2 C 2,2 C 1,7 C 96 % 1005,5 hPa 0,0 l/m 0 min 2 min 0 W/m 16,1 km/h (3 Bft) 95,74 %
26.02.2020 19:22 3,2 C 2,2 C 1,7 C 96 % 1005,5 hPa 0,0 l/m 0 min 2 min 0 W/m 6,4 km/h (2 Bft) 95,65 %
26.02.2020 19:24 3,2 C 2,2 C 1,7 C 96 % 1005,6 hPa 0,0 l/m 0 min 2 min 0 W/m 12,9 km/h (3 Bft) 97,87 %
26.02.2020 19:26 3,2 C 1,7 C 1,7 C 96 % 1005,6 hPa 0,0 l/m 0 min 2 min 0 W/m 19,3 km/h (3 Bft) 97,87 %
26.02.2020 19:28 3,2 C 1,7 C 1,7 C 96 % 1005,6 hPa 0,0 l/m 0 min 0 min 0 W/m 6,4 km/h (2 Bft) 95,74 %
26.02.2020 19:30 3,1 C 1,7 C 1,7 C 96 % 1005,6 hPa 0,0 l/m 0 min 0 min 0 W/m 6,4 km/h (2 Bft) 74,47 %
26.02.2020 19:32 3,1 C 1,7 C 1,1 C 96 % 1005,7 hPa 0,0 l/m 0 min 0 min 0 W/m 9,7 km/h (2 Bft) 74,47 %
26.02.2020 19:34 3,1 C 1,7 C 1,7 C 96 % 1005,7 hPa 0,0 l/m 0 min 0 min 0 W/m 12,9 km/h (3 Bft) 97,83 %
26.02.2020 19:36 3,1 C 1,7 C 1,1 C 96 % 1005,7 hPa 0,0 l/m 0 min 0 min 0 W/m 12,9 km/h (3 Bft) 97,87 %
26.02.2020 19:38 3,0 C 1,7 C 1,1 C 96 % 1005,8 hPa 0,0 l/m 0 min 0 min 0 W/m 12,9 km/h (3 Bft) 95,74 %
26.02.2020 19:40 3,0 C 1,7 C 1,1 C 96 % 1005,8 hPa 0,0 l/m 0 min 0 min 0 W/m 9,7 km/h (2 Bft) 97,87 %
26.02.2020 19:42 2,9 C 1,7 C 1,1 C 96 % 1005,8 hPa 0,0 l/m 0 min 0 min 0 W/m 0,0 km/h (0 Bft) 97,87 %
26.02.2020 19:44 2,9 C 1,7 C 1,1 C 96 % 1005,8 hPa 0,0 l/m 0 min 0 min 0 W/m 12,9 km/h (3 Bft) 97,83 %
26.02.2020 19:46 2,9 C 1,7 C 1,1 C 96 % 1005,8 hPa 0,0 l/m 0 min 0 min 0 W/m 6,4 km/h (2 Bft) 95,74 %
26.02.2020 19:48 2,9 C 1,7 C 1,1 C 96 % 1005,9 hPa 0,0 l/m 0 min 0 min 0 W/m 0,0 km/h (0 Bft) 95,74 %
26.02.2020 19:50 2,8 C 1,7 C 1,1 C 96 % 1005,9 hPa 0,0 l/m 0 min 0 min 0 W/m 0,0 km/h (0 Bft) 97,87 %
26.02.2020 19:52 2,8 C 1,7 C 1,1 C 96 % 1005,9 hPa 0,0 l/m 0 min 2 min 0 W/m 3,2 km/h (1 Bft) 95,74 %
26.02.2020 19:54 2,8 C 1,7 C 1,1 C 96 % 1005,9 hPa 0,0 l/m 0 min 2 min 0 W/m 9,7 km/h (2 Bft) 100,00 %
26.02.2020 19:56 2,8 C 1,7 C 1,7 C 96 % 1005,9 hPa 0,0 l/m 0 min 2 min 0 W/m 3,2 km/h (1 Bft) 100,00 %
26.02.2020 19:58 2,8 C 1,7 C 1,7 C 96 % 1005,9 hPa 0,0 l/m 0 min 0 min 0 W/m 3,2 km/h (1 Bft) 97,87 %
26.02.2020 20:00 2,8 C 1,7 C 1,1 C 96 % 1005,9 hPa 0,0 l/m 0 min 0 min 0 W/m 0,0 km/h (0 Bft) 100,00 %
26.02.2020 20:02 2,8 C 1,7 C 1,1 C 96 % 1005,9 hPa 0,0 l/m 0 min 2 min 0 W/m 0,0 km/h (0 Bft) 97,87 %
26.02.2020 20:04 2,8 C 1,7 C 1,1 C 96 % 1006,0 hPa 0,0 l/m 0 min 0 min 0 W/m 0,0 km/h (0 Bft) 100,00 %
26.02.2020 20:06 2,8 C 1,7 C 1,1 C 96 % 1006,0 hPa 0,0 l/m 0 min 2 min 0 W/m 3,2 km/h (1 Bft) 100,00 %
26.02.2020 20:08 2,8 C 1,1 C 1,1 C 96 % 1006,0 hPa 0,0 l/m 0 min 2 min 0 W/m 6,4 km/h (2 Bft) 100,00 %
26.02.2020 20:10 2,8 C 1,7 C 1,1 C 96 % 1006,0 hPa 0,0 l/m 0 min 2 min 0 W/m 12,9 km/h (3 Bft) 100,00 %
26.02.2020 20:12 2,7 C 1,1 C 1,1 C 96 % 1006,0 hPa 0,0 l/m 0 min 2 min 0 W/m 3,2 km/h (1 Bft) 97,87 %
26.02.2020 20:14 2,7 C 1,1 C 1,1 C 96 % 1005,9 hPa 0,0 l/m 0 min 2 min 0 W/m 0,0 km/h (0 Bft) 100,00 %
26.02.2020 20:16 2,7 C 1,1 C 1,1 C 96 % 1005,9 hPa 0,0 l/m 0 min 2 min 0 W/m 3,2 km/h (1 Bft) 100,00 %
26.02.2020 20:18 2,7 C 1,1 C 1,1 C 96 % 1005,9 hPa 0,0 l/m 0 min 2 min 0 W/m 6,4 km/h (2 Bft) 100,00 %
26.02.2020 20:20 2,7 C 1,1 C 1,1 C 96 % 1005,9 hPa 0,0 l/m 0 min 2 min 0 W/m 0,0 km/h (0 Bft) 100,00 %
26.02.2020 20:22 2,6 C 1,1 C 1,1 C 96 % 1006,0 hPa 0,0 l/m 0 min 2 min 0 W/m 3,2 km/h (1 Bft) 100,00 %
26.02.2020 20:24 2,6 C 1,1 C 1,1 C 96 % 1006,0 hPa 0,0 l/m 0 min 2 min 0 W/m 3,2 km/h (1 Bft) 97,87 %
26.02.2020 20:26 2,6 C 1,1 C 1,1 C 96 % 1006,0 hPa 0,0 l/m 0 min 2 min 0 W/m 3,2 km/h (1 Bft) 100,00 %
26.02.2020 20:28 2,6 C 1,1 C 1,1 C 96 % 1006,1 hPa 0,0 l/m 0 min 2 min 0 W/m 6,4 km/h (2 Bft) 100,00 %
26.02.2020 20:30 2,6 C 1,1 C 1,1 C 96 % 1006,1 hPa 0,0 l/m 0 min 0 min 0 W/m 3,2 km/h (1 Bft) 100,00 %
26.02.2020 20:32 2,6 C 1,1 C 1,1 C 96 % 1006,1 hPa 0,0 l/m 0 min 2 min 0 W/m 0,0 km/h (0 Bft) 97,87 %
26.02.2020 20:34 2,6 C 1,7 C 1,1 C 96 % 1006,2 hPa 0,0 l/m 0 min 2 min 0 W/m 6,4 km/h (2 Bft) 97,87 %
26.02.2020 20:36 2,6 C 1,7 C 1,1 C 96 % 1006,1 hPa 0,0 l/m 0 min 2 min 0 W/m 0,0 km/h (0 Bft) 95,74 %
26.02.2020 20:38 2,6 C 1,7 C 1,1 C 96 % 1006,1 hPa 0,0 l/m 0 min 2 min 0 W/m 3,2 km/h (1 Bft) 95,74 %
26.02.2020 20:40 2,6 C 1,7 C 1,1 C 96 % 1006,2 hPa 0,0 l/m 0 min 2 min 0 W/m 3,2 km/h (1 Bft) 97,87 %
26.02.2020 20:42 2,6 C 1,7 C 1,1 C 96 % 1006,2 hPa 0,0 l/m 0 min 2 min 0 W/m 19,3 km/h (3 Bft) 95,65 %
26.02.2020 20:44 2,6 C 1,7 C 1,1 C 96 % 1006,2 hPa 0,0 l/m 0 min 2 min 0 W/m 6,4 km/h (2 Bft) 97,87 %
26.02.2020 20:46 2,6 C 1,7 C 1,1 C 96 % 1006,2 hPa 0,0 l/m 0 min 0 min 0 W/m 3,2 km/h (1 Bft) 97,87 %
26.02.2020 20:48 2,6 C 1,7 C 1,1 C 96 % 1006,2 hPa 0,0 l/m 0 min 2 min 0 W/m 16,1 km/h (3 Bft) 97,87 %
26.02.2020 20:50 2,6 C 1,7 C 1,1 C 96 % 1006,2 hPa 0,0 l/m 0 min 0 min 0 W/m 6,4 km/h (2 Bft) 97,87 %
26.02.2020 20:52 2,6 C 1,7 C 1,1 C 96 % 1006,2 hPa 0,0 l/m 0 min 0 min 0 W/m 0,0 km/h (0 Bft) 97,87 %
26.02.2020 20:54 2,6 C 1,7 C 1,1 C 96 % 1006,2 hPa 0,0 l/m 0 min 2 min 0 W/m 16,1 km/h (3 Bft) 95,65 %
26.02.2020 20:56 2,6 C 1,7 C 1,1 C 96 % 1006,2 hPa 0,0 l/m 0 min 0 min 0 W/m 0,0 km/h (0 Bft) 97,87 %
26.02.2020 20:58 2,6 C 1,7 C 1,1 C 96 % 1006,3 hPa 0,0 l/m 0 min 0 min 0 W/m 0,0 km/h (0 Bft) 97,87 %
26.02.2020 21:00 2,6 C 1,7 C 1,1 C 96 % 1006,3 hPa 0,0 l/m 0 min 0 min 0 W/m 3,2 km/h (1 Bft) 97,87 %
26.02.2020 21:02 2,6 C 1,7 C 1,1 C 96 % 1006,3 hPa 0,0 l/m 0 min 0 min 0 W/m 6,4 km/h (2 Bft) 93,62 %
26.02.2020 21:04 2,6 C 1,7 C 1,1 C 96 % 1006,3 hPa 0,0 l/m 0 min 0 min 0 W/m 3,2 km/h (1 Bft) 97,96 %
26.02.2020 21:06 2,6 C 1,7 C 1,1 C 96 % 1006,3 hPa 0,0 l/m 0 min 0 min 0 W/m 3,2 km/h (1 Bft) 95,74 %
26.02.2020 21:08 2,6 C 1,7 C 1,1 C 97 % 1006,3 hPa 0,0 l/m 0 min 0 min 0 W/m 0,0 km/h (0 Bft) 97,87 %
26.02.2020 21:10 2,6 C 1,7 C 1,1 C 97 % 1006,4 hPa 0,0 l/m 0 min 0 min 0 W/m 6,4 km/h (2 Bft) 95,74 %
26.02.2020 21:12 2,6 C 1,7 C 1,1 C 97 % 1006,4 hPa 0,0 l/m 0 min 0 min 0 W/m 12,9 km/h (3 Bft) 97,87 %
26.02.2020 21:14 2,7 C 1,7 C 1,1 C 97 % 1006,4 hPa 0,0 l/m 0 min 0 min 0 W/m 3,2 km/h (1 Bft) 97,83 %
26.02.2020 21:16 2,7 C 1,7 C 1,1 C 97 % 1006,5 hPa 0,0 l/m 0 min 0 min 0 W/m 3,2 km/h (1 Bft) 93,62 %
26.02.2020 21:18 2,7 C 1,7 C 1,7 C 97 % 1006,5 hPa 0,0 l/m 0 min 0 min 0 W/m 6,4 km/h (2 Bft) 97,87 %
26.02.2020 21:20 2,7 C 1,7 C 1,7 C 97 % 1006,4 hPa 0,0 l/m 0 min 0 min 0 W/m 0,0 km/h (0 Bft) 100,00 %
26.02.2020 21:22 2,7 C 1,7 C 1,1 C 97 % 1006,4 hPa 0,0 l/m 0 min 0 min 0 W/m 3,2 km/h (1 Bft) 100,00 %
26.02.2020 21:24 2,7 C 1,7 C 1,1 C 97 % 1006,4 hPa 0,0 l/m 0 min 0 min 0 W/m 0,0 km/h (0 Bft) 97,87 %
26.02.2020 21:26 2,7 C 1,7 C 1,1 C 97 % 1006,4 hPa 0,0 l/m 0 min 0 min 0 W/m 0,0 km/h (0 Bft) 100,00 %
26.02.2020 21:28 2,7 C 1,7 C 1,1 C 97 % 1006,4 hPa 0,0 l/m 0 min 0 min 0 W/m 6,4 km/h (2 Bft) 97,87 %
26.02.2020 21:30 2,7 C 1,7 C 1,1 C 97 % 1006,5 hPa 0,0 l/m 0 min 0 min 0 W/m 12,9 km/h (3 Bft) 93,62 %
26.02.2020 21:32 2,6 C 1,7 C 1,1 C 97 % 1006,5 hPa 0,0 l/m 0 min 0 min 0 W/m 0,0 km/h (0 Bft) 100,00 %
26.02.2020 21:34 2,6 C 1,1 C 1,1 C 97 % 1006,6 hPa 0,0 l/m 0 min 0 min 0 W/m 0,0 km/h (0 Bft) 100,00 %
26.02.2020 21:36 2,6 C 1,1 C 1,1 C 97 % 1006,6 hPa 0,0 l/m 0 min 0 min 0 W/m 0,0 km/h (0 Bft) 100,00 %
26.02.2020 21:38 2,6 C 1,1 C 1,1 C 97 % 1006,6 hPa 0,0 l/m 0 min 0 min 0 W/m 0,0 km/h (0 Bft) 97,87 %
26.02.2020 21:40 2,6 C 1,1 C 1,1 C 97 % 1006,6 hPa 0,0 l/m 0 min 0 min 0 W/m 3,2 km/h (1 Bft) 97,87 %
26.02.2020 21:42 2,5 C 1,1 C 1,1 C 97 % 1006,5 hPa 0,0 l/m 0 min 0 min 0 W/m 0,0 km/h (0 Bft) 97,87 %
26.02.2020 21:44 2,5 C 1,1 C 1,1 C 96 % 1006,6 hPa 0,0 l/m 0 min 0 min 0 W/m 0,0 km/h (0 Bft) 95,74 %
26.02.2020 21:46 2,5 C 1,1 C 1,1 C 96 % 1006,7 hPa 0,0 l/m 0 min 0 min 0 W/m 0,0 km/h (0 Bft) 95,74 %
26.02.2020 21:48 2,4 C 1,1 C 1,1 C 96 % 1006,7 hPa 0,0 l/m 0 min 0 min 0 W/m 0,0 km/h (0 Bft) 93,62 %
26.02.2020 21:50 2,4 C 1,1 C 1,1 C 96 % 1006,7 hPa 0,0 l/m 0 min 0 min 0 W/m 0,0 km/h (0 Bft) 97,83 %
26.02.2020 21:52 2,4 C 1,1 C 1,1 C 96 % 1006,7 hPa 0,0 l/m 0 min 0 min 0 W/m 0,0 km/h (0 Bft) 93,62 %
26.02.2020 21:54 2,4 C 1,1 C 1,1 C 96 % 1006,7 hPa 0,0 l/m 0 min 0 min 0 W/m 6,4 km/h (2 Bft) 97,87 %
26.02.2020 21:56 2,4 C 1,1 C 1,1 C 96 % 1006,7 hPa 0,0 l/m 0 min 0 min 0 W/m 3,2 km/h (1 Bft) 97,87 %
26.02.2020 21:58 2,4 C 1,1 C 1,1 C 97 % 1006,7 hPa 0,0 l/m 0 min 0 min 0 W/m 0,0 km/h (0 Bft) 97,87 %
26.02.2020 22:00 2,4 C 1,1 C 1,1 C 97 % 1006,7 hPa 0,0 l/m 0 min 0 min 0 W/m 0,0 km/h (0 Bft) 95,65 %
26.02.2020 22:02 2,3 C 1,1 C 0,6 C 97 % 1006,7 hPa 0,0 l/m 0 min 0 min 0 W/m 0,0 km/h (0 Bft) 95,74 %
26.02.2020 22:04 2,3 C 1,1 C 0,6 C 97 % 1006,7 hPa 0,0 l/m 0 min 0 min 0 W/m 0,0 km/h (0 Bft) 95,74 %
26.02.2020 22:06 2,3 C 1,1 C 0,6 C 97 % 1006,7 hPa 0,0 l/m 0 min 0 min 0 W/m 0,0 km/h (0 Bft) 93,62 %
26.02.2020 22:08 2,3 C 1,1 C 0,6 C 97 % 1006,8 hPa 0,0 l/m 0 min 0 min 0 W/m 0,0 km/h (0 Bft) 95,74 %
26.02.2020 22:10 2,3 C 1,1 C 0,6 C 97 % 1006,8 hPa 0,0 l/m 0 min 0 min 0 W/m 0,0 km/h (0 Bft) 95,74 %
26.02.2020 22:12 2,2 C 1,1 C 0,6 C 97 % 1006,8 hPa 0,0 l/m 0 min 0 min 0 W/m 0,0 km/h (0 Bft) 95,65 %
26.02.2020 22:14 2,2 C 1,1 C 0,6 C 97 % 1006,8 hPa 0,0 l/m 0 min 0 min 0 W/m 0,0 km/h (0 Bft) 95,74 %
26.02.2020 22:16 2,2 C 1,1 C 0,6 C 97 % 1006,8 hPa 0,0 l/m 0 min 0 min 0 W/m 6,4 km/h (2 Bft) 95,74 %
26.02.2020 22:18 2,2 C 1,1 C 0,6 C 97 % 1006,8 hPa 0,0 l/m 0 min 0 min 0 W/m 0,0 km/h (0 Bft) 95,74 %
26.02.2020 22:20 2,2 C 1,1 C 1,1 C 97 % 1006,8 hPa 0,0 l/m 0 min 0 min 0 W/m 3,2 km/h (1 Bft) 95,74 %
26.02.2020 22:22 2,2 C 1,1 C 1,1 C 97 % 1006,8 hPa 0,0 l/m 0 min 0 min 0 W/m 3,2 km/h (1 Bft) 97,87 %
26.02.2020 22:24 2,2 C 1,1 C 0,6 C 97 % 1006,8 hPa 0,0 l/m 0 min 0 min 0 W/m 0,0 km/h (0 Bft) 97,83 %
26.02.2020 22:26 2,2 C 1,1 C 0,6 C 97 % 1006,8 hPa 0,0 l/m 0 min 0 min 0 W/m 0,0 km/h (0 Bft) 97,87 %
26.02.2020 22:28 2,2 C 1,1 C 0,6 C 97 % 1006,9 hPa 0,0 l/m 0 min 0 min 0 W/m 0,0 km/h (0 Bft) 97,87 %
26.02.2020 22:30 2,2 C 1,1 C 0,6 C 97 % 1006,8 hPa 0,0 l/m 0 min 0 min 0 W/m 3,2 km/h (1 Bft) 95,74 %
26.02.2020 22:32 2,2 C 1,1 C 0,6 C 97 % 1006,9 hPa 0,0 l/m 0 min 0 min 0 W/m 0,0 km/h (0 Bft) 95,74 %
26.02.2020 22:34 2,2 C 1,1 C 0,6 C 97 % 1006,9 hPa 0,0 l/m 0 min 0 min 0 W/m 0,0 km/h (0 Bft) 97,87 %
26.02.2020 22:36 2,1 C 1,1 C 0,6 C 97 % 1006,9 hPa 0,0 l/m 0 min 0 min 0 W/m 3,2 km/h (1 Bft) 95,65 %
26.02.2020 22:38 2,1 C 1,1 C 0,6 C 97 % 1006,9 hPa 0,0 l/m 0 min 0 min 0 W/m 3,2 km/h (1 Bft) 97,87 %
26.02.2020 22:40 2,1 C 1,1 C 1,1 C 97 % 1006,9 hPa 0,0 l/m 0 min 0 min 0 W/m 3,2 km/h (1 Bft) 97,87 %
26.02.2020 22:42 2,1 C 1,1 C 1,1 C 97 % 1007,0 hPa 0,0 l/m 0 min 0 min 0 W/m 3,2 km/h (1 Bft) 97,87 %
26.02.2020 22:44 2,1 C 1,1 C 1,1 C 97 % 1006,9 hPa 0,0 l/m 0 min 0 min 0 W/m 0,0 km/h (0 Bft) 97,87 %
26.02.2020 22:46 2,2 C 1,7 C 1,1 C 97 % 1006,9 hPa 0,0 l/m 0 min 0 min 0 W/m 0,0 km/h (0 Bft) 97,87 %
26.02.2020 22:48 2,2 C 1,7 C 1,1 C 97 % 1006,9 hPa 0,0 l/m 0 min 0 min 0 W/m 3,2 km/h (1 Bft) 97,83 %
26.02.2020 22:50 2,2 C 1,7 C 1,1 C 97 % 1006,9 hPa 0,0 l/m 0 min 0 min 0 W/m 0,0 km/h (0 Bft) 95,74 %
26.02.2020 22:52 2,2 C 1,7 C 1,1 C 97 % 1006,9 hPa 0,0 l/m 0 min 0 min 0 W/m 0,0 km/h (0 Bft) 97,87 %
26.02.2020 22:54 2,2 C 1,1 C 1,1 C 97 % 1007,0 hPa 0,0 l/m 0 min 0 min 0 W/m 6,4 km/h (2 Bft) 97,87 %
26.02.2020 22:56 2,2 C 1,1 C 1,1 C 97 % 1006,9 hPa 0,0 l/m 0 min 0 min 0 W/m 6,4 km/h (2 Bft) 97,87 %
26.02.2020 22:58 2,2 C 1,1 C 1,1 C 97 % 1007,0 hPa 0,0 l/m 0 min 0 min 0 W/m 0,0 km/h (0 Bft) 95,65 %
26.02.2020 23:00 2,2 C 1,1 C 1,1 C 97 % 1007,0 hPa 0,0 l/m 0 min 0 min 0 W/m 0,0 km/h (0 Bft) 100,00 %
26.02.2020 23:02 2,2 C 1,1 C 1,1 C 97 % 1007,0 hPa 0,0 l/m 0 min 0 min 0 W/m 9,7 km/h (2 Bft) 97,87 %
26.02.2020 23:04 2,2 C 1,1 C 1,1 C 97 % 1007,0 hPa 0,0 l/m 0 min 0 min 0 W/m 0,0 km/h (0 Bft) 97,87 %
26.02.2020 23:06 2,2 C 1,1 C 1,1 C 97 % 1007,0 hPa 0,0 l/m 0 min 0 min 0 W/m 3,2 km/h (1 Bft) 100,00 %
26.02.2020 23:08 2,2 C 1,1 C 1,1 C 97 % 1007,0 hPa 0,0 l/m 0 min 0 min 0 W/m 0,0 km/h (0 Bft) 100,00 %
26.02.2020 23:10 2,2 C 1,7 C 1,1 C 97 % 1007,0 hPa 0,0 l/m 0 min 0 min 0 W/m 3,2 km/h (1 Bft) 100,00 %
26.02.2020 23:12 2,2 C 1,1 C 1,1 C 97 % 1007,0 hPa 0,0 l/m 0 min 0 min 0 W/m 0,0 km/h (0 Bft) 100,00 %
26.02.2020 23:14 2,2 C 1,7 C 1,1 C 97 % 1007,0 hPa 0,0 l/m 0 min 0 min 0 W/m 3,2 km/h (1 Bft) 97,87 %
26.02.2020 23:16 2,2 C 1,7 C 1,1 C 97 % 1007,1 hPa 0,0 l/m 0 min 2 min 0 W/m 0,0 km/h (0 Bft) 97,87 %
26.02.2020 23:18 2,2 C 1,1 C 1,1 C 97 % 1007,0 hPa 0,0 l/m 0 min 2 min 0 W/m 0,0 km/h (0 Bft) 97,87 %
26.02.2020 23:20 2,2 C 1,1 C 1,1 C 97 % 1007,0 hPa 0,0 l/m 0 min 2 min 0 W/m 0,0 km/h (0 Bft) 97,87 %
26.02.2020 23:22 2,2 C 1,7 C 1,1 C 97 % 1007,0 hPa 0,0 l/m 0 min 2 min 0 W/m 3,2 km/h (1 Bft) 95,65 %
26.02.2020 23:24 2,2 C 1,7 C 1,1 C 97 % 1007,1 hPa 0,0 l/m 0 min 2 min 0 W/m 0,0 km/h (0 Bft) 97,87 %
26.02.2020 23:26 2,2 C 1,7 C 1,1 C 97 % 1007,0 hPa 0,0 l/m 0 min 2 min 0 W/m 3,2 km/h (1 Bft) 91,49 %
26.02.2020 23:28 2,3 C 1,7 C 1,1 C 97 % 1007,0 hPa 0,0 l/m 0 min 2 min 0 W/m 3,2 km/h (1 Bft) 93,62 %
26.02.2020 23:30 2,3 C 1,7 C 1,1 C 97 % 1007,0 hPa 0,2 l/m 0 min 2 min 0 W/m 3,2 km/h (1 Bft) 95,74 %
26.02.2020 23:32 2,3 C 1,7 C 1,1 C 97 % 1007,0 hPa 0,0 l/m 0 min 2 min 0 W/m 0,0 km/h (0 Bft) 97,83 %
26.02.2020 23:34 2,3 C 1,7 C 1,1 C 97 % 1007,0 hPa 0,0 l/m 0 min 2 min 0 W/m 9,7 km/h (2 Bft) 95,74 %
26.02.2020 23:36 2,3 C 1,7 C 1,1 C 97 % 1007,0 hPa 0,0 l/m 0 min 2 min 0 W/m 3,2 km/h (1 Bft) 97,87 %
26.02.2020 23:38 2,4 C 1,7 C 1,1 C 97 % 1007,0 hPa 0,0 l/m 0 min 2 min 0 W/m 19,3 km/h (3 Bft) 97,87 %
26.02.2020 23:40 2,4 C 1,7 C 1,1 C 97 % 1007,0 hPa 0,0 l/m 0 min 2 min 0 W/m 6,4 km/h (2 Bft) 97,87 %
26.02.2020 23:42 2,4 C 1,7 C 1,1 C 97 % 1007,0 hPa 0,0 l/m 0 min 2 min 0 W/m 16,1 km/h (3 Bft) 97,87 %
26.02.2020 23:44 2,4 C 1,7 C 1,1 C 97 % 1007,0 hPa 0,0 l/m 0 min 2 min 0 W/m 16,1 km/h (3 Bft) 97,83 %
26.02.2020 23:46 2,4 C 1,7 C 1,1 C 97 % 1007,0 hPa 0,2 l/m 0 min 2 min 0 W/m 16,1 km/h (3 Bft) 95,74 %
26.02.2020 23:48 2,4 C 1,7 C 1,1 C 97 % 1007,0 hPa 0,0 l/m 0 min 2 min 0 W/m 3,2 km/h (1 Bft) 91,49 %
26.02.2020 23:50 2,4 C 1,1 C 1,1 C 97 % 1007,0 hPa 0,2 l/m 0 min 2 min 0 W/m 6,4 km/h (2 Bft) 97,87 %
26.02.2020 23:52 2,4 C 1,1 C 1,1 C 97 % 1006,9 hPa 0,0 l/m 0 min 2 min 0 W/m 6,4 km/h (2 Bft) 97,87 %
26.02.2020 23:54 2,4 C 1,1 C 1,1 C 97 % 1006,9 hPa 0,0 l/m 0 min 2 min 0 W/m 0,0 km/h (0 Bft) 97,87 %
26.02.2020 23:56 2,4 C 1,1 C 1,1 C 97 % 1006,9 hPa 0,0 l/m 0 min 2 min 0 W/m 0,0 km/h (0 Bft) 95,65 %
26.02.2020 23:58 2,4 C 1,1 C 1,1 C 97 % 1006,8 hPa 0,0 l/m 0 min 2 min 0 W/m 0,0 km/h (0 Bft) 100,00 %
_ Min-Zeit 06:58 05:04 05:06 03:24 03:18 - - - - 01:30 03:16
Minimum _ 0,6 C -0,6 C -1,1 C 90 % 992,5 hPa - - - - 0,0 km/h (0 Bft) 54,55 %
_ Max-Zeit 14:48 13:44 12:26 09:54 23:16 02:12 12:16 00:08 12:22 03:24 00:24
Maximum _ 4,6 C 7,8 C 4,4 C 99 % 1007,1 hPa 0,2 l/m 2 min 4 min 401 W/m 45,1 km/h
O-SO (6 Bft)
100,00 %
Durchschnitt _ 2,7 C 2,0 C 1,5 C 97 % 999,4 hPa #10,8 l/m #1:12 h #13:38 h 91 W/m 11,3 km/h (2 Bft) 97,20 %
© 2020 W. Hausmann